GEFSNGP_prec_meanprecacc_234.txt.gz
Total_Precipitation_Accumulation
0.29 0.28 0.32 0.39 0.41 0.50 0.64 0.82 1.05 0.94 0.73 0.62 0.61 0.56 0.57 0.64 0.57 0.53 0.50 0.48 0.49 0.47 0.49 0.53 0.56 0.65 0.72 0.82 1.01 1.12 1.19 1.16 1.07 0.99 0.88 0.80 0.73 0.64 0.65 0.58 0.56 0.63 0.79 0.96
0.17 0.18 0.22 0.33 0.45 0.58 0.65 0.71 0.74 0.65 0.61 0.47 0.44 0.38 0.39 0.45 0.45 0.45 0.40 0.36 0.35 0.38 0.39 0.44 0.49 0.56 0.57 0.67 0.83 0.94 1.00 1.03 1.07 1.02 0.85 0.75 0.66 0.58 0.54 0.52 0.52 0.54 0.63 0.79
0.19 0.16 0.26 0.47 0.56 0.63 0.62 0.57 0.50 0.47 0.42 0.31 0.28 0.22 0.22 0.29 0.33 0.37 0.36 0.31 0.29 0.30 0.33 0.39 0.48 0.52 0.57 0.66 0.77 0.80 0.85 0.87 0.91 0.89 0.74 0.67 0.56 0.48 0.49 0.49 0.51 0.51 0.57 0.70
0.27 0.23 0.45 0.66 0.53 0.48 0.53 0.43 0.29 0.26 0.25 0.24 0.19 0.16 0.13 0.14 0.17 0.19 0.23 0.24 0.29 0.28 0.27 0.30 0.38 0.49 0.62 0.65 0.65 0.65 0.70 0.72 0.71 0.71 0.65 0.57 0.47 0.44 0.44 0.46 0.50 0.51 0.53 0.57
0.40 0.38 0.50 0.59 0.40 0.37 0.45 0.42 0.23 0.17 0.16 0.14 0.12 0.10 0.07 0.08 0.11 0.12 0.12 0.15 0.20 0.20 0.20 0.21 0.23 0.27 0.32 0.37 0.39 0.40 0.49 0.56 0.61 0.61 0.57 0.51 0.46 0.51 0.54 0.52 0.50 0.48 0.47 0.48
0.47 0.55 0.62 0.44 0.19 0.18 0.32 0.49 0.21 0.12 0.10 0.09 0.09 0.11 0.09 0.09 0.11 0.10 0.08 0.08 0.11 0.15 0.14 0.14 0.15 0.17 0.19 0.21 0.24 0.25 0.31 0.37 0.45 0.51 0.54 0.56 0.66 0.72 0.71 0.66 0.58 0.51 0.46 0.45
0.53 0.73 0.68 0.40 0.18 0.19 0.36 0.52 0.27 0.12 0.08 0.09 0.09 0.09 0.08 0.10 0.10 0.09 0.08 0.06 0.08 0.10 0.11 0.13 0.13 0.13 0.15 0.17 0.16 0.17 0.17 0.23 0.33 0.49 0.55 0.63 0.75 0.78 0.74 0.66 0.58 0.53 0.49 0.45
0.68 0.87 0.89 0.45 0.25 0.30 0.28 0.19 0.16 0.10 0.08 0.08 0.07 0.07 0.08 0.08 0.07 0.08 0.08 0.07 0.07 0.08 0.09 0.12 0.13 0.11 0.12 0.18 0.17 0.18 0.17 0.21 0.29 0.39 0.51 0.64 0.73 0.71 0.70 0.70 0.63 0.57 0.57 0.53
0.72 0.74 0.58 0.35 0.25 0.19 0.13 0.12 0.08 0.06 0.06 0.06 0.05 0.06 0.07 0.09 0.08 0.07 0.07 0.07 0.08 0.09 0.09 0.10 0.10 0.11 0.11 0.14 0.17 0.17 0.17 0.17 0.19 0.27 0.40 0.57 0.64 0.65 0.65 0.68 0.66 0.63 0.60 0.57
0.32 0.22 0.19 0.16 0.14 0.10 0.07 0.07 0.04 0.03 0.03 0.05 0.06 0.05 0.06 0.07 0.07 0.07 0.07 0.06 0.06 0.07 0.07 0.08 0.10 0.11 0.14 0.16 0.16 0.15 0.17 0.17 0.16 0.17 0.21 0.29 0.36 0.43 0.50 0.54 0.56 0.56 0.56 0.57
0.27 0.14 0.09 0.08 0.08 0.06 0.05 0.05 0.03 0.02 0.02 0.03 0.05 0.04 0.04 0.07 0.06 0.07 0.08 0.08 0.06 0.07 0.08 0.08 0.09 0.09 0.12 0.14 0.16 0.16 0.17 0.18 0.18 0.19 0.21 0.23 0.24 0.28 0.33 0.35 0.43 0.49 0.49 0.51
0.24 0.15 0.09 0.07 0.05 0.05 0.05 0.04 0.03 0.02 0.02 0.03 0.04 0.04 0.04 0.04 0.05 0.06 0.07 0.07 0.07 0.08 0.09 0.09 0.10 0.10 0.10 0.11 0.12 0.14 0.14 0.14 0.13 0.14 0.17 0.19 0.21 0.23 0.25 0.26 0.31 0.34 0.35 0.36
0.11 0.10 0.08 0.08 0.07 0.05 0.04 0.03 0.03 0.03 0.02 0.02 0.02 0.03 0.04 0.03 0.04 0.05 0.06 0.06 0.07 0.08 0.09 0.10 0.10 0.10 0.11 0.12 0.11 0.13 0.13 0.14 0.12 0.11 0.14 0.17 0.18 0.21 0.24 0.23 0.20 0.19 0.22 0.26
0.05 0.08 0.09 0.07 0.05 0.04 0.03 0.03 0.03 0.03 0.02 0.02 0.03 0.03 0.04 0.04 0.05 0.05 0.06 0.06 0.07 0.07 0.09 0.09 0.08 0.08 0.11 0.12 0.12 0.13 0.14 0.16 0.16 0.17 0.18 0.17 0.18 0.23 0.26 0.28 0.23 0.16 0.15 0.19
0.06 0.06 0.08 0.06 0.04 0.03 0.03 0.03 0.03 0.03 0.03 0.04 0.05 0.04 0.04 0.05 0.06 0.06 0.07 0.07 0.07 0.07 0.08 0.09 0.09 0.08 0.10 0.11 0.13 0.14 0.14 0.15 0.17 0.21 0.21 0.22 0.24 0.28 0.28 0.27 0.25 0.20 0.18 0.17
0.06 0.05 0.06 0.06 0.04 0.03 0.04 0.04 0.04 0.05 0.04 0.04 0.05 0.05 0.04 0.04 0.06 0.07 0.08 0.08 0.08 0.07 0.09 0.11 0.12 0.12 0.12 0.13 0.14 0.15 0.16 0.19 0.19 0.20 0.22 0.25 0.26 0.26 0.25 0.23 0.22 0.20 0.19 0.19
0.06 0.05 0.05 0.04 0.03 0.03 0.04 0.06 0.07 0.07 0.06 0.06 0.06 0.06 0.05 0.04 0.05 0.06 0.07 0.08 0.08 0.08 0.09 0.12 0.15 0.14 0.13 0.12 0.12 0.14 0.16 0.19 0.20 0.19 0.18 0.20 0.20 0.21 0.21 0.19 0.19 0.17 0.16 0.16
0.05 0.05 0.04 0.04 0.04 0.05 0.06 0.08 0.08 0.07 0.07 0.08 0.09 0.08 0.07 0.06 0.06 0.06 0.08 0.08 0.07 0.06 0.07 0.09 0.13 0.15 0.13 0.12 0.13 0.15 0.16 0.17 0.15 0.16 0.18 0.18 0.18 0.20 0.22 0.23 0.23 0.21 0.20 0.18
0.07 0.06 0.05 0.05 0.05 0.07 0.09 0.10 0.09 0.07 0.07 0.08 0.08 0.08 0.09 0.09 0.08 0.07 0.07 0.08 0.06 0.06 0.06 0.08 0.12 0.13 0.12 0.12 0.14 0.13 0.15 0.17 0.17 0.17 0.17 0.18 0.20 0.22 0.23 0.23 0.25 0.25 0.26 0.24
0.09 0.09 0.08 0.08 0.10 0.11 0.11 0.10 0.08 0.07 0.07 0.07 0.07 0.08 0.08 0.08 0.07 0.07 0.08 0.08 0.08 0.08 0.08 0.08 0.09 0.09 0.11 0.13 0.15 0.13 0.13 0.14 0.17 0.20 0.19 0.22 0.23 0.23 0.24 0.23 0.23 0.23 0.23 0.24
0.13 0.13 0.12 0.12 0.12 0.11 0.11 0.11 0.09 0.08 0.07 0.07 0.07 0.08 0.08 0.07 0.07 0.07 0.08 0.09 0.08 0.08 0.08 0.09 0.09 0.10 0.12 0.15 0.16 0.13 0.12 0.13 0.16 0.19 0.19 0.21 0.24 0.27 0.29 0.26 0.24 0.23 0.22 0.22
0.16 0.15 0.13 0.11 0.11 0.12 0.12 0.11 0.10 0.09 0.08 0.09 0.09 0.08 0.09 0.09 0.09 0.09 0.09 0.11 0.11 0.12 0.11 0.11 0.11 0.14 0.17 0.18 0.15 0.14 0.15 0.14 0.15 0.17 0.19 0.21 0.23 0.27 0.32 0.33 0.30 0.26 0.25 0.26
0.15 0.15 0.14 0.13 0.12 0.12 0.11 0.11 0.12 0.12 0.12 0.11 0.11 0.11 0.12 0.12 0.12 0.14 0.15 0.14 0.15 0.17 0.15 0.15 0.17 0.20 0.22 0.18 0.17 0.17 0.18 0.19 0.19 0.20 0.22 0.24 0.26 0.29 0.33 0.34 0.35 0.34 0.32 0.32
0.19 0.17 0.16 0.16 0.15 0.14 0.15 0.16 0.16 0.15 0.16 0.17 0.16 0.15 0.15 0.16 0.17 0.17 0.19 0.20 0.19 0.18 0.15 0.15 0.18 0.19 0.20 0.17 0.20 0.22 0.22 0.23 0.25 0.27 0.29 0.31 0.31 0.33 0.36 0.37 0.38 0.39 0.39 0.39
0.24 0.22 0.22 0.23 0.23 0.22 0.23 0.21 0.20 0.18 0.17 0.18 0.17 0.16 0.16 0.17 0.19 0.20 0.20 0.21 0.21 0.20 0.18 0.20 0.22 0.22 0.19 0.18 0.22 0.25 0.27 0.29 0.31 0.32 0.32 0.34 0.34 0.35 0.36 0.38 0.40 0.42 0.43 0.44
0.21 0.20 0.20 0.22 0.25 0.24 0.22 0.21 0.21 0.20 0.18 0.18 0.19 0.19 0.18 0.18 0.19 0.20 0.21 0.23 0.23 0.23 0.20 0.19 0.19 0.20 0.19 0.21 0.23 0.25 0.28 0.30 0.30 0.30 0.32 0.35 0.37 0.37 0.39 0.42 0.43 0.46 0.48 0.49
0.21 0.19 0.19 0.21 0.23 0.21 0.19 0.19 0.21 0.22 0.23 0.25 0.27 0.27 0.25 0.25 0.25 0.25 0.24 0.25 0.28 0.26 0.24 0.23 0.24 0.24 0.25 0.27 0.27 0.27 0.29 0.30 0.30 0.32 0.35 0.37 0.41 0.44 0.45 0.45 0.47 0.50 0.53 0.54

GEFSNGP_prec_meanprecacc_240.txt.gz
Total_Precipitation_Accumulation
0.30 0.28 0.33 0.39 0.41 0.50 0.64 0.82 1.06 0.95 0.73 0.62 0.61 0.57 0.59 0.65 0.58 0.53 0.51 0.49 0.49 0.47 0.49 0.53 0.56 0.66 0.73 0.84 1.02 1.14 1.21 1.18 1.09 1.01 0.91 0.82 0.74 0.65 0.66 0.58 0.56 0.63 0.79 0.96
0.17 0.18 0.22 0.33 0.45 0.58 0.65 0.71 0.74 0.65 0.61 0.47 0.44 0.40 0.40 0.46 0.46 0.46 0.41 0.36 0.36 0.38 0.39 0.44 0.49 0.57 0.58 0.69 0.85 0.96 1.02 1.05 1.09 1.04 0.87 0.78 0.68 0.59 0.56 0.53 0.53 0.55 0.64 0.79
0.19 0.16 0.26 0.47 0.56 0.63 0.62 0.57 0.50 0.47 0.42 0.31 0.28 0.24 0.24 0.30 0.34 0.38 0.37 0.31 0.30 0.30 0.33 0.40 0.48 0.52 0.57 0.67 0.80 0.83 0.87 0.89 0.93 0.91 0.76 0.69 0.57 0.50 0.50 0.51 0.53 0.52 0.58 0.71
0.29 0.24 0.46 0.66 0.53 0.48 0.53 0.43 0.29 0.26 0.26 0.24 0.20 0.16 0.15 0.15 0.17 0.19 0.23 0.24 0.29 0.28 0.27 0.30 0.38 0.49 0.62 0.66 0.66 0.67 0.72 0.73 0.72 0.72 0.67 0.59 0.49 0.45 0.45 0.47 0.51 0.51 0.53 0.58
0.42 0.40 0.51 0.59 0.40 0.37 0.45 0.42 0.23 0.17 0.17 0.14 0.13 0.11 0.09 0.09 0.12 0.12 0.12 0.15 0.20 0.20 0.20 0.21 0.23 0.27 0.33 0.38 0.40 0.41 0.51 0.58 0.62 0.63 0.59 0.54 0.49 0.53 0.55 0.53 0.51 0.49 0.48 0.49
0.50 0.57 0.64 0.45 0.19 0.18 0.33 0.50 0.21 0.12 0.10 0.09 0.09 0.12 0.10 0.10 0.11 0.10 0.09 0.08 0.11 0.15 0.14 0.14 0.16 0.17 0.19 0.22 0.26 0.28 0.33 0.39 0.46 0.52 0.55 0.58 0.68 0.74 0.73 0.68 0.60 0.52 0.48 0.46
0.56 0.75 0.70 0.41 0.18 0.20 0.37 0.52 0.27 0.12 0.08 0.09 0.10 0.10 0.09 0.10 0.10 0.09 0.08 0.06 0.08 0.10 0.11 0.13 0.13 0.13 0.16 0.18 0.18 0.19 0.19 0.24 0.34 0.49 0.56 0.65 0.78 0.81 0.76 0.68 0.59 0.54 0.50 0.46
0.70 0.90 0.93 0.47 0.26 0.30 0.28 0.19 0.16 0.10 0.08 0.09 0.08 0.08 0.08 0.09 0.08 0.08 0.08 0.07 0.07 0.08 0.09 0.12 0.14 0.11 0.12 0.19 0.18 0.19 0.19 0.23 0.30 0.40 0.52 0.65 0.75 0.74 0.72 0.72 0.65 0.58 0.57 0.54
0.75 0.77 0.61 0.36 0.25 0.19 0.13 0.12 0.08 0.06 0.06 0.07 0.07 0.08 0.08 0.09 0.08 0.07 0.08 0.07 0.08 0.09 0.09 0.10 0.11 0.12 0.12 0.15 0.17 0.18 0.18 0.18 0.20 0.28 0.42 0.59 0.67 0.68 0.68 0.70 0.68 0.64 0.61 0.58
0.34 0.24 0.20 0.17 0.15 0.10 0.07 0.07 0.04 0.03 0.03 0.07 0.09 0.09 0.08 0.08 0.08 0.08 0.08 0.07 0.06 0.08 0.08 0.09 0.11 0.13 0.16 0.18 0.17 0.16 0.18 0.19 0.17 0.18 0.23 0.32 0.39 0.46 0.53 0.58 0.59 0.59 0.59 0.60
0.28 0.14 0.10 0.09 0.08 0.06 0.05 0.05 0.03 0.02 0.02 0.04 0.08 0.09 0.06 0.08 0.07 0.08 0.08 0.08 0.07 0.08 0.08 0.09 0.11 0.11 0.13 0.16 0.18 0.17 0.19 0.20 0.20 0.22 0.25 0.26 0.28 0.32 0.36 0.39 0.46 0.52 0.52 0.54
0.25 0.16 0.10 0.07 0.06 0.05 0.05 0.04 0.03 0.02 0.03 0.05 0.07 0.07 0.06 0.05 0.06 0.07 0.08 0.09 0.08 0.09 0.10 0.10 0.11 0.12 0.12 0.13 0.14 0.16 0.17 0.16 0.16 0.17 0.20 0.22 0.23 0.26 0.28 0.29 0.35 0.37 0.38 0.38
0.12 0.11 0.09 0.08 0.08 0.05 0.04 0.04 0.03 0.03 0.03 0.04 0.05 0.08 0.05 0.04 0.05 0.07 0.08 0.07 0.08 0.09 0.10 0.10 0.11 0.11 0.13 0.13 0.13 0.14 0.15 0.15 0.14 0.14 0.17 0.20 0.20 0.23 0.26 0.25 0.23 0.22 0.25 0.29
0.06 0.08 0.10 0.08 0.07 0.05 0.05 0.04 0.04 0.03 0.03 0.03 0.04 0.07 0.06 0.05 0.07 0.08 0.07 0.07 0.07 0.08 0.09 0.10 0.09 0.09 0.11 0.13 0.14 0.15 0.16 0.18 0.18 0.20 0.21 0.19 0.20 0.24 0.27 0.29 0.25 0.18 0.18 0.22
0.06 0.07 0.08 0.07 0.05 0.05 0.05 0.05 0.04 0.03 0.03 0.05 0.05 0.05 0.07 0.08 0.10 0.10 0.08 0.07 0.07 0.07 0.09 0.09 0.09 0.09 0.10 0.13 0.15 0.16 0.16 0.16 0.19 0.23 0.23 0.23 0.25 0.29 0.29 0.28 0.25 0.21 0.19 0.19
0.07 0.06 0.07 0.07 0.06 0.04 0.05 0.05 0.05 0.05 0.04 0.06 0.08 0.07 0.06 0.07 0.09 0.10 0.11 0.10 0.09 0.08 0.10 0.12 0.12 0.13 0.13 0.14 0.15 0.16 0.18 0.21 0.21 0.21 0.23 0.26 0.26 0.27 0.26 0.24 0.23 0.21 0.20 0.21
0.08 0.07 0.06 0.06 0.05 0.04 0.05 0.06 0.07 0.08 0.07 0.07 0.10 0.09 0.07 0.06 0.07 0.09 0.10 0.11 0.10 0.10 0.10 0.13 0.16 0.16 0.15 0.14 0.14 0.15 0.18 0.20 0.21 0.20 0.19 0.21 0.21 0.21 0.22 0.21 0.20 0.19 0.17 0.18
0.08 0.07 0.05 0.04 0.04 0.05 0.06 0.08 0.09 0.08 0.08 0.09 0.11 0.11 0.09 0.08 0.08 0.09 0.10 0.10 0.09 0.08 0.08 0.10 0.15 0.17 0.15 0.14 0.15 0.16 0.18 0.18 0.17 0.16 0.18 0.19 0.20 0.21 0.23 0.24 0.24 0.22 0.21 0.19
0.07 0.07 0.05 0.05 0.05 0.07 0.09 0.10 0.09 0.09 0.09 0.09 0.10 0.11 0.11 0.11 0.10 0.09 0.09 0.09 0.07 0.07 0.07 0.09 0.13 0.14 0.13 0.14 0.15 0.15 0.16 0.18 0.18 0.17 0.18 0.19 0.21 0.23 0.23 0.24 0.26 0.26 0.27 0.25
0.11 0.10 0.09 0.09 0.10 0.11 0.11 0.11 0.10 0.09 0.08 0.09 0.10 0.10 0.10 0.09 0.09 0.09 0.09 0.09 0.08 0.08 0.08 0.10 0.10 0.11 0.12 0.14 0.17 0.14 0.14 0.15 0.18 0.20 0.20 0.22 0.24 0.24 0.24 0.23 0.24 0.24 0.24 0.25
0.15 0.14 0.13 0.13 0.13 0.11 0.11 0.12 0.11 0.11 0.11 0.10 0.10 0.10 0.10 0.09 0.08 0.08 0.09 0.09 0.09 0.08 0.08 0.10 0.10 0.11 0.14 0.17 0.17 0.14 0.13 0.13 0.16 0.19 0.20 0.21 0.25 0.28 0.30 0.27 0.24 0.23 0.23 0.23
0.17 0.16 0.14 0.12 0.12 0.12 0.12 0.11 0.12 0.12 0.11 0.12 0.12 0.12 0.11 0.11 0.11 0.10 0.10 0.12 0.12 0.13 0.12 0.11 0.11 0.15 0.19 0.20 0.16 0.16 0.16 0.15 0.16 0.18 0.20 0.21 0.24 0.28 0.33 0.34 0.31 0.27 0.27 0.28
0.16 0.15 0.15 0.13 0.13 0.12 0.12 0.13 0.14 0.14 0.14 0.13 0.14 0.15 0.16 0.17 0.16 0.17 0.18 0.16 0.16 0.18 0.16 0.16 0.18 0.22 0.23 0.20 0.18 0.18 0.19 0.19 0.20 0.20 0.22 0.25 0.27 0.31 0.34 0.35 0.36 0.35 0.34 0.34
0.21 0.18 0.18 0.18 0.16 0.16 0.18 0.19 0.18 0.16 0.18 0.19 0.18 0.18 0.20 0.22 0.22 0.22 0.23 0.23 0.21 0.19 0.16 0.17 0.19 0.21 0.22 0.19 0.21 0.23 0.23 0.25 0.27 0.28 0.29 0.32 0.32 0.34 0.37 0.38 0.39 0.40 0.40 0.41
0.28 0.25 0.25 0.27 0.27 0.26 0.26 0.25 0.23 0.20 0.19 0.20 0.20 0.18 0.18 0.19 0.22 0.24 0.24 0.25 0.25 0.23 0.20 0.21 0.23 0.24 0.21 0.19 0.23 0.26 0.29 0.31 0.34 0.35 0.35 0.35 0.35 0.36 0.37 0.39 0.41 0.43 0.44 0.45
0.25 0.24 0.24 0.26 0.28 0.27 0.26 0.25 0.25 0.24 0.22 0.21 0.22 0.21 0.20 0.21 0.22 0.24 0.26 0.27 0.27 0.27 0.24 0.21 0.21 0.21 0.20 0.22 0.24 0.26 0.29 0.31 0.32 0.32 0.34 0.37 0.39 0.39 0.41 0.43 0.44 0.47 0.49 0.50
0.23 0.22 0.22 0.24 0.27 0.25 0.24 0.25 0.27 0.27 0.27 0.28 0.30 0.29 0.28 0.28 0.29 0.29 0.28 0.29 0.31 0.30 0.28 0.28 0.28 0.26 0.26 0.27 0.27 0.28 0.30 0.31 0.31 0.33 0.36 0.38 0.42 0.45 0.46 0.46 0.48 0.51 0.54 0.56

GEFSNGP_prec_meanprecacc_246.txt.gz
Total_Precipitation_Accumulation
0.30 0.28 0.33 0.40 0.41 0.51 0.65 0.82 1.06 0.95 0.74 0.63 0.62 0.58 0.60 0.66 0.59 0.55 0.54 0.53 0.53 0.50 0.51 0.54 0.58 0.67 0.74 0.86 1.06 1.18 1.25 1.23 1.15 1.06 0.95 0.86 0.76 0.68 0.69 0.61 0.58 0.64 0.80 0.96
0.17 0.18 0.23 0.33 0.45 0.59 0.65 0.72 0.74 0.65 0.61 0.47 0.44 0.40 0.41 0.47 0.47 0.47 0.43 0.38 0.38 0.42 0.42 0.46 0.50 0.57 0.59 0.70 0.87 1.00 1.06 1.09 1.15 1.11 0.93 0.82 0.72 0.62 0.59 0.57 0.56 0.57 0.65 0.80
0.20 0.16 0.27 0.47 0.56 0.63 0.63 0.58 0.50 0.48 0.43 0.31 0.28 0.25 0.24 0.30 0.35 0.40 0.39 0.33 0.31 0.32 0.35 0.42 0.50 0.53 0.58 0.68 0.81 0.85 0.91 0.93 0.98 0.98 0.82 0.74 0.63 0.55 0.54 0.53 0.54 0.54 0.60 0.72
0.29 0.25 0.47 0.67 0.54 0.49 0.54 0.44 0.30 0.27 0.26 0.24 0.20 0.17 0.15 0.16 0.18 0.21 0.24 0.25 0.30 0.28 0.27 0.31 0.38 0.49 0.63 0.67 0.67 0.69 0.74 0.76 0.76 0.78 0.73 0.65 0.54 0.49 0.48 0.50 0.53 0.53 0.55 0.60
0.43 0.41 0.52 0.60 0.41 0.39 0.46 0.43 0.23 0.18 0.17 0.14 0.13 0.11 0.10 0.10 0.12 0.13 0.13 0.15 0.20 0.20 0.20 0.21 0.24 0.27 0.33 0.39 0.42 0.43 0.53 0.60 0.65 0.67 0.64 0.58 0.52 0.56 0.59 0.56 0.54 0.52 0.50 0.52
0.52 0.59 0.66 0.46 0.20 0.19 0.34 0.51 0.22 0.12 0.11 0.09 0.10 0.12 0.11 0.11 0.12 0.11 0.09 0.08 0.11 0.15 0.14 0.14 0.16 0.17 0.20 0.24 0.27 0.30 0.35 0.42 0.50 0.57 0.59 0.62 0.71 0.77 0.76 0.70 0.62 0.55 0.50 0.49
0.58 0.77 0.72 0.42 0.19 0.21 0.39 0.54 0.28 0.13 0.10 0.11 0.11 0.11 0.09 0.10 0.11 0.09 0.08 0.06 0.08 0.10 0.11 0.13 0.14 0.14 0.16 0.19 0.19 0.22 0.22 0.27 0.37 0.53 0.60 0.69 0.81 0.83 0.78 0.70 0.61 0.56 0.53 0.48
0.73 0.93 0.95 0.48 0.27 0.33 0.31 0.21 0.17 0.11 0.09 0.09 0.09 0.09 0.09 0.09 0.08 0.08 0.08 0.07 0.07 0.08 0.09 0.12 0.14 0.12 0.13 0.19 0.19 0.23 0.24 0.25 0.32 0.43 0.55 0.69 0.79 0.77 0.75 0.74 0.67 0.60 0.59 0.56
0.78 0.79 0.62 0.37 0.26 0.21 0.15 0.14 0.09 0.07 0.07 0.08 0.08 0.08 0.09 0.09 0.08 0.07 0.08 0.07 0.08 0.09 0.09 0.10 0.11 0.13 0.12 0.15 0.19 0.21 0.23 0.21 0.22 0.30 0.45 0.62 0.70 0.71 0.71 0.72 0.70 0.66 0.62 0.59
0.36 0.26 0.21 0.18 0.16 0.11 0.08 0.08 0.05 0.03 0.04 0.07 0.10 0.09 0.08 0.08 0.08 0.08 0.08 0.07 0.07 0.09 0.09 0.09 0.11 0.13 0.16 0.19 0.19 0.19 0.21 0.21 0.19 0.19 0.25 0.35 0.42 0.49 0.56 0.60 0.61 0.61 0.60 0.61
0.29 0.17 0.12 0.12 0.10 0.07 0.06 0.05 0.03 0.02 0.03 0.04 0.08 0.09 0.06 0.08 0.07 0.08 0.08 0.08 0.08 0.09 0.10 0.10 0.11 0.12 0.14 0.18 0.20 0.20 0.21 0.22 0.22 0.23 0.26 0.28 0.31 0.34 0.38 0.41 0.49 0.55 0.55 0.56
0.27 0.18 0.13 0.09 0.08 0.07 0.06 0.04 0.03 0.03 0.03 0.06 0.08 0.08 0.06 0.06 0.06 0.07 0.08 0.09 0.09 0.10 0.12 0.11 0.12 0.13 0.13 0.14 0.16 0.18 0.19 0.19 0.18 0.20 0.23 0.24 0.26 0.28 0.30 0.31 0.37 0.40 0.40 0.40
0.13 0.13 0.12 0.10 0.09 0.07 0.05 0.05 0.04 0.04 0.04 0.04 0.06 0.08 0.06 0.05 0.06 0.10 0.12 0.10 0.09 0.10 0.12 0.12 0.12 0.12 0.14 0.15 0.15 0.17 0.17 0.17 0.17 0.16 0.19 0.22 0.22 0.24 0.28 0.26 0.25 0.24 0.28 0.31
0.07 0.10 0.12 0.11 0.09 0.07 0.06 0.06 0.05 0.04 0.03 0.03 0.05 0.08 0.07 0.06 0.07 0.10 0.10 0.11 0.11 0.10 0.11 0.12 0.11 0.10 0.13 0.15 0.17 0.18 0.19 0.21 0.21 0.22 0.23 0.21 0.22 0.26 0.29 0.31 0.26 0.20 0.20 0.24
0.07 0.08 0.10 0.09 0.07 0.06 0.06 0.06 0.05 0.04 0.04 0.05 0.06 0.07 0.08 0.10 0.11 0.14 0.13 0.11 0.08 0.08 0.10 0.11 0.11 0.10 0.12 0.14 0.17 0.18 0.19 0.19 0.21 0.25 0.25 0.25 0.27 0.31 0.30 0.29 0.27 0.23 0.20 0.20
0.08 0.08 0.09 0.09 0.07 0.05 0.05 0.06 0.05 0.06 0.05 0.07 0.09 0.08 0.07 0.09 0.12 0.16 0.17 0.14 0.10 0.09 0.10 0.13 0.13 0.14 0.15 0.17 0.18 0.20 0.20 0.23 0.23 0.23 0.25 0.28 0.29 0.28 0.27 0.25 0.24 0.22 0.21 0.21
0.10 0.09 0.07 0.07 0.05 0.04 0.05 0.07 0.08 0.08 0.07 0.08 0.11 0.10 0.08 0.07 0.08 0.11 0.13 0.14 0.13 0.11 0.11 0.14 0.17 0.17 0.17 0.16 0.17 0.19 0.21 0.22 0.24 0.22 0.21 0.23 0.23 0.23 0.24 0.22 0.21 0.20 0.18 0.19
0.10 0.08 0.06 0.05 0.04 0.05 0.06 0.08 0.09 0.09 0.08 0.09 0.12 0.12 0.11 0.10 0.09 0.10 0.12 0.14 0.13 0.11 0.11 0.13 0.17 0.19 0.17 0.17 0.18 0.20 0.21 0.20 0.18 0.18 0.21 0.22 0.22 0.23 0.26 0.28 0.27 0.24 0.23 0.20
0.08 0.07 0.06 0.05 0.06 0.07 0.10 0.10 0.10 0.09 0.09 0.10 0.11 0.13 0.13 0.13 0.12 0.11 0.12 0.14 0.13 0.12 0.10 0.11 0.15 0.16 0.15 0.17 0.18 0.17 0.18 0.19 0.19 0.18 0.19 0.21 0.24 0.25 0.27 0.27 0.29 0.28 0.29 0.27
0.12 0.10 0.09 0.09 0.10 0.11 0.12 0.11 0.10 0.09 0.09 0.09 0.11 0.12 0.13 0.13 0.12 0.11 0.12 0.13 0.13 0.13 0.11 0.11 0.12 0.13 0.15 0.16 0.18 0.15 0.15 0.16 0.19 0.21 0.21 0.23 0.25 0.26 0.26 0.26 0.27 0.27 0.27 0.27
0.16 0.15 0.13 0.13 0.13 0.12 0.12 0.12 0.12 0.11 0.11 0.12 0.13 0.13 0.14 0.13 0.12 0.11 0.12 0.13 0.12 0.11 0.11 0.12 0.12 0.13 0.15 0.18 0.18 0.15 0.13 0.14 0.17 0.20 0.21 0.23 0.26 0.29 0.31 0.28 0.26 0.25 0.25 0.25
0.17 0.16 0.14 0.12 0.12 0.13 0.13 0.12 0.12 0.13 0.13 0.14 0.14 0.14 0.15 0.15 0.15 0.14 0.13 0.14 0.14 0.15 0.14 0.13 0.13 0.16 0.19 0.20 0.17 0.16 0.16 0.16 0.17 0.19 0.21 0.22 0.25 0.29 0.34 0.36 0.33 0.29 0.28 0.29
0.17 0.16 0.16 0.14 0.13 0.13 0.13 0.14 0.15 0.15 0.16 0.16 0.16 0.17 0.20 0.22 0.22 0.22 0.21 0.19 0.19 0.20 0.19 0.18 0.20 0.23 0.24 0.20 0.19 0.19 0.19 0.20 0.20 0.21 0.23 0.26 0.28 0.32 0.35 0.37 0.38 0.37 0.35 0.35
0.21 0.20 0.19 0.19 0.17 0.18 0.19 0.20 0.19 0.18 0.20 0.21 0.20 0.22 0.25 0.27 0.28 0.27 0.28 0.28 0.27 0.24 0.19 0.20 0.22 0.23 0.24 0.20 0.22 0.24 0.24 0.25 0.27 0.29 0.31 0.33 0.33 0.35 0.38 0.39 0.41 0.42 0.43 0.43
0.29 0.26 0.27 0.29 0.29 0.28 0.29 0.27 0.25 0.22 0.21 0.23 0.24 0.22 0.23 0.24 0.26 0.29 0.31 0.30 0.30 0.28 0.25 0.26 0.28 0.28 0.23 0.21 0.24 0.27 0.30 0.32 0.35 0.36 0.36 0.37 0.36 0.37 0.38 0.40 0.42 0.45 0.46 0.47
0.26 0.25 0.26 0.28 0.31 0.30 0.30 0.29 0.28 0.26 0.24 0.24 0.24 0.24 0.25 0.25 0.25 0.27 0.30 0.33 0.33 0.33 0.30 0.27 0.25 0.25 0.24 0.25 0.27 0.28 0.30 0.32 0.33 0.33 0.35 0.39 0.40 0.40 0.42 0.44 0.45 0.48 0.50 0.51
0.24 0.23 0.23 0.26 0.29 0.29 0.28 0.29 0.31 0.31 0.31 0.31 0.34 0.33 0.33 0.32 0.33 0.33 0.32 0.34 0.37 0.37 0.36 0.35 0.33 0.31 0.31 0.32 0.32 0.32 0.33 0.34 0.33 0.35 0.38 0.40 0.44 0.46 0.48 0.48 0.49 0.52 0.55 0.57

GEFSNGP_prec_meanprecacc_252.txt.gz
Total_Precipitation_Accumulation
0.31 0.29 0.34 0.40 0.42 0.51 0.65 0.83 1.06 0.95 0.74 0.63 0.62 0.58 0.60 0.66 0.59 0.55 0.54 0.54 0.55 0.53 0.53 0.55 0.59 0.67 0.75 0.87 1.07 1.19 1.28 1.26 1.17 1.09 1.00 0.91 0.82 0.73 0.73 0.64 0.62 0.69 0.84 1.00
0.18 0.18 0.23 0.33 0.45 0.59 0.66 0.72 0.74 0.65 0.61 0.47 0.45 0.40 0.41 0.47 0.47 0.48 0.43 0.38 0.39 0.42 0.43 0.48 0.52 0.59 0.60 0.71 0.88 1.00 1.08 1.11 1.17 1.13 0.96 0.85 0.75 0.66 0.64 0.62 0.61 0.61 0.69 0.84
0.20 0.16 0.27 0.48 0.57 0.64 0.64 0.59 0.51 0.48 0.43 0.31 0.28 0.25 0.24 0.30 0.35 0.41 0.40 0.34 0.32 0.32 0.36 0.43 0.51 0.55 0.59 0.70 0.82 0.86 0.91 0.94 0.99 0.99 0.84 0.77 0.66 0.59 0.57 0.57 0.58 0.57 0.64 0.76
0.30 0.25 0.48 0.68 0.55 0.50 0.55 0.45 0.31 0.28 0.27 0.25 0.20 0.17 0.15 0.16 0.19 0.21 0.24 0.25 0.30 0.28 0.28 0.32 0.39 0.50 0.64 0.68 0.68 0.69 0.75 0.77 0.77 0.79 0.74 0.67 0.57 0.54 0.54 0.56 0.59 0.59 0.60 0.65
0.45 0.42 0.53 0.61 0.41 0.39 0.47 0.45 0.25 0.19 0.18 0.15 0.13 0.11 0.10 0.10 0.12 0.13 0.13 0.16 0.20 0.20 0.20 0.22 0.24 0.28 0.34 0.39 0.43 0.45 0.54 0.62 0.66 0.68 0.65 0.60 0.54 0.60 0.64 0.61 0.60 0.58 0.55 0.56
0.53 0.60 0.67 0.47 0.20 0.20 0.34 0.52 0.22 0.13 0.11 0.10 0.10 0.12 0.11 0.11 0.12 0.11 0.09 0.08 0.12 0.15 0.14 0.14 0.16 0.17 0.20 0.24 0.28 0.31 0.37 0.45 0.52 0.59 0.61 0.63 0.73 0.80 0.80 0.76 0.67 0.59 0.54 0.53
0.59 0.78 0.73 0.43 0.19 0.21 0.40 0.55 0.28 0.13 0.10 0.11 0.11 0.11 0.09 0.11 0.11 0.10 0.08 0.07 0.08 0.11 0.12 0.13 0.14 0.14 0.16 0.19 0.19 0.22 0.23 0.29 0.40 0.56 0.64 0.71 0.83 0.86 0.83 0.76 0.65 0.58 0.55 0.51
0.73 0.94 0.96 0.49 0.28 0.34 0.32 0.21 0.17 0.11 0.09 0.10 0.09 0.09 0.09 0.09 0.08 0.08 0.09 0.07 0.08 0.09 0.09 0.12 0.14 0.12 0.13 0.20 0.20 0.24 0.25 0.26 0.34 0.45 0.58 0.72 0.81 0.79 0.78 0.79 0.71 0.62 0.61 0.58
0.79 0.80 0.63 0.38 0.27 0.22 0.16 0.15 0.09 0.07 0.07 0.08 0.08 0.08 0.09 0.09 0.08 0.08 0.08 0.07 0.09 0.09 0.10 0.10 0.11 0.13 0.13 0.16 0.20 0.23 0.25 0.21 0.23 0.32 0.46 0.64 0.72 0.73 0.74 0.76 0.73 0.69 0.64 0.60
0.39 0.28 0.22 0.19 0.17 0.12 0.09 0.09 0.06 0.04 0.04 0.07 0.10 0.09 0.08 0.08 0.08 0.08 0.08 0.07 0.07 0.09 0.09 0.10 0.11 0.13 0.16 0.19 0.20 0.20 0.22 0.22 0.21 0.21 0.27 0.36 0.44 0.50 0.58 0.63 0.63 0.63 0.63 0.63
0.31 0.18 0.13 0.13 0.13 0.10 0.08 0.07 0.05 0.04 0.03 0.05 0.08 0.09 0.06 0.08 0.07 0.08 0.08 0.08 0.08 0.09 0.11 0.10 0.12 0.12 0.15 0.19 0.21 0.21 0.22 0.24 0.24 0.25 0.28 0.29 0.32 0.35 0.39 0.43 0.51 0.58 0.57 0.60
0.29 0.20 0.14 0.11 0.11 0.11 0.10 0.08 0.07 0.05 0.04 0.06 0.08 0.08 0.06 0.06 0.06 0.07 0.08 0.09 0.09 0.11 0.12 0.12 0.12 0.14 0.14 0.15 0.17 0.19 0.20 0.21 0.20 0.21 0.24 0.25 0.27 0.29 0.32 0.32 0.39 0.43 0.43 0.43
0.14 0.15 0.13 0.12 0.12 0.12 0.10 0.07 0.06 0.05 0.05 0.05 0.06 0.09 0.06 0.05 0.06 0.10 0.12 0.10 0.09 0.10 0.12 0.13 0.13 0.13 0.15 0.15 0.16 0.18 0.19 0.19 0.19 0.18 0.21 0.24 0.24 0.26 0.29 0.28 0.26 0.26 0.30 0.33
0.08 0.11 0.15 0.14 0.12 0.11 0.08 0.07 0.05 0.04 0.04 0.04 0.05 0.08 0.07 0.06 0.08 0.10 0.10 0.12 0.12 0.12 0.13 0.13 0.12 0.11 0.13 0.16 0.18 0.19 0.21 0.23 0.22 0.23 0.24 0.23 0.24 0.28 0.31 0.32 0.28 0.22 0.23 0.27
0.09 0.09 0.11 0.12 0.10 0.09 0.07 0.06 0.05 0.04 0.04 0.05 0.06 0.07 0.09 0.10 0.12 0.14 0.14 0.12 0.10 0.10 0.11 0.13 0.12 0.11 0.12 0.16 0.19 0.20 0.20 0.21 0.23 0.26 0.26 0.26 0.29 0.33 0.32 0.31 0.28 0.25 0.23 0.23
0.10 0.09 0.11 0.11 0.09 0.07 0.06 0.06 0.05 0.06 0.05 0.07 0.09 0.08 0.08 0.10 0.13 0.17 0.20 0.18 0.14 0.10 0.11 0.15 0.15 0.15 0.16 0.18 0.20 0.21 0.21 0.24 0.25 0.25 0.27 0.29 0.30 0.30 0.28 0.28 0.26 0.24 0.23 0.24
0.13 0.12 0.10 0.09 0.06 0.05 0.05 0.07 0.08 0.08 0.08 0.08 0.11 0.11 0.09 0.08 0.10 0.14 0.16 0.18 0.16 0.13 0.12 0.15 0.18 0.19 0.18 0.17 0.19 0.21 0.22 0.24 0.26 0.24 0.23 0.24 0.25 0.25 0.26 0.24 0.23 0.22 0.21 0.22
0.13 0.11 0.08 0.06 0.05 0.05 0.06 0.08 0.09 0.09 0.09 0.10 0.12 0.13 0.12 0.11 0.11 0.12 0.14 0.18 0.17 0.13 0.12 0.14 0.18 0.21 0.20 0.19 0.20 0.23 0.23 0.22 0.20 0.20 0.22 0.23 0.24 0.25 0.27 0.29 0.29 0.27 0.26 0.24
0.11 0.09 0.07 0.06 0.06 0.08 0.10 0.10 0.10 0.09 0.09 0.10 0.11 0.13 0.14 0.14 0.13 0.13 0.15 0.19 0.19 0.15 0.12 0.12 0.17 0.18 0.18 0.20 0.21 0.21 0.22 0.21 0.20 0.20 0.20 0.22 0.26 0.27 0.28 0.29 0.31 0.31 0.32 0.30
0.14 0.12 0.10 0.10 0.11 0.12 0.12 0.11 0.11 0.10 0.09 0.10 0.11 0.13 0.14 0.14 0.14 0.14 0.15 0.19 0.19 0.17 0.13 0.14 0.15 0.15 0.17 0.19 0.21 0.19 0.20 0.18 0.20 0.22 0.22 0.24 0.26 0.28 0.28 0.28 0.30 0.31 0.30 0.30
0.18 0.18 0.16 0.16 0.15 0.13 0.13 0.13 0.12 0.11 0.11 0.12 0.13 0.14 0.15 0.15 0.14 0.14 0.15 0.17 0.16 0.14 0.14 0.16 0.15 0.16 0.18 0.22 0.22 0.20 0.20 0.18 0.19 0.22 0.22 0.24 0.27 0.30 0.33 0.32 0.30 0.29 0.29 0.28
0.19 0.19 0.17 0.15 0.14 0.15 0.14 0.13 0.13 0.13 0.13 0.14 0.15 0.15 0.17 0.19 0.18 0.16 0.15 0.17 0.17 0.19 0.18 0.17 0.16 0.18 0.22 0.23 0.20 0.20 0.22 0.22 0.20 0.22 0.23 0.25 0.27 0.31 0.36 0.38 0.36 0.32 0.31 0.32
0.18 0.18 0.18 0.17 0.15 0.15 0.14 0.14 0.15 0.16 0.17 0.17 0.18 0.20 0.24 0.25 0.24 0.24 0.23 0.21 0.21 0.23 0.21 0.20 0.22 0.26 0.26 0.22 0.21 0.21 0.23 0.25 0.25 0.25 0.27 0.30 0.31 0.35 0.38 0.40 0.42 0.41 0.38 0.38
0.22 0.21 0.20 0.20 0.19 0.19 0.20 0.21 0.20 0.19 0.21 0.23 0.23 0.25 0.28 0.31 0.32 0.31 0.31 0.31 0.30 0.27 0.23 0.24 0.26 0.27 0.27 0.23 0.25 0.27 0.27 0.28 0.31 0.32 0.34 0.36 0.36 0.38 0.41 0.42 0.44 0.46 0.46 0.45
0.30 0.27 0.27 0.29 0.30 0.29 0.29 0.28 0.26 0.23 0.23 0.26 0.27 0.25 0.26 0.28 0.30 0.34 0.35 0.34 0.34 0.33 0.31 0.32 0.33 0.33 0.29 0.26 0.29 0.31 0.33 0.35 0.38 0.39 0.39 0.39 0.39 0.39 0.40 0.42 0.45 0.47 0.49 0.49
0.27 0.26 0.27 0.29 0.32 0.31 0.31 0.30 0.30 0.29 0.28 0.28 0.28 0.27 0.28 0.28 0.29 0.32 0.35 0.37 0.38 0.39 0.36 0.32 0.29 0.30 0.30 0.32 0.34 0.35 0.36 0.37 0.37 0.36 0.38 0.41 0.42 0.42 0.43 0.46 0.47 0.50 0.52 0.53
0.25 0.24 0.23 0.27 0.30 0.30 0.29 0.30 0.34 0.34 0.34 0.34 0.37 0.36 0.35 0.36 0.36 0.36 0.36 0.38 0.42 0.43 0.42 0.40 0.37 0.36 0.37 0.39 0.39 0.39 0.40 0.39 0.38 0.39 0.41 0.43 0.46 0.49 0.50 0.51 0.52 0.54 0.57 0.59

GEFSNGP_prec_meanprecacc_258.txt.gz
Total_Precipitation_Accumulation
0.32 0.30 0.34 0.41 0.42 0.51 0.66 0.84 1.07 0.96 0.75 0.64 0.62 0.58 0.60 0.67 0.59 0.56 0.54 0.55 0.56 0.54 0.55 0.56 0.60 0.68 0.75 0.87 1.07 1.20 1.29 1.27 1.17 1.10 1.00 0.92 0.84 0.75 0.75 0.66 0.63 0.70 0.85 1.00
0.18 0.18 0.23 0.34 0.46 0.60 0.66 0.73 0.75 0.65 0.61 0.48 0.45 0.40 0.41 0.47 0.48 0.48 0.44 0.38 0.39 0.43 0.44 0.48 0.52 0.59 0.60 0.71 0.88 1.01 1.09 1.12 1.18 1.14 0.96 0.86 0.76 0.68 0.65 0.64 0.62 0.63 0.71 0.85
0.21 0.17 0.27 0.48 0.57 0.64 0.64 0.59 0.51 0.48 0.43 0.31 0.29 0.25 0.24 0.30 0.35 0.41 0.40 0.34 0.32 0.32 0.36 0.43 0.52 0.55 0.60 0.70 0.83 0.86 0.92 0.95 1.00 1.00 0.85 0.78 0.67 0.60 0.59 0.58 0.60 0.60 0.66 0.78
0.31 0.26 0.49 0.68 0.55 0.50 0.56 0.45 0.31 0.28 0.27 0.25 0.20 0.17 0.16 0.16 0.19 0.21 0.24 0.26 0.30 0.28 0.28 0.32 0.39 0.50 0.64 0.68 0.69 0.70 0.76 0.77 0.77 0.80 0.75 0.68 0.58 0.55 0.56 0.58 0.62 0.62 0.64 0.68
0.46 0.43 0.54 0.61 0.41 0.39 0.47 0.45 0.25 0.19 0.18 0.15 0.14 0.13 0.11 0.11 0.13 0.13 0.13 0.16 0.20 0.21 0.21 0.22 0.25 0.28 0.34 0.39 0.43 0.45 0.55 0.62 0.66 0.68 0.66 0.61 0.55 0.61 0.66 0.64 0.64 0.63 0.60 0.59
0.54 0.61 0.68 0.47 0.20 0.20 0.35 0.53 0.23 0.13 0.11 0.10 0.11 0.13 0.12 0.11 0.12 0.11 0.09 0.09 0.13 0.16 0.15 0.15 0.16 0.17 0.20 0.24 0.28 0.31 0.37 0.45 0.53 0.59 0.62 0.65 0.74 0.82 0.83 0.79 0.71 0.62 0.58 0.56
0.60 0.79 0.74 0.43 0.20 0.22 0.41 0.56 0.29 0.13 0.10 0.11 0.11 0.11 0.10 0.11 0.11 0.10 0.08 0.07 0.09 0.12 0.12 0.13 0.14 0.14 0.16 0.20 0.20 0.22 0.23 0.29 0.40 0.57 0.65 0.74 0.87 0.89 0.86 0.80 0.68 0.61 0.58 0.55
0.74 0.95 0.98 0.49 0.28 0.35 0.33 0.22 0.17 0.11 0.09 0.10 0.09 0.09 0.09 0.09 0.08 0.09 0.09 0.08 0.08 0.09 0.10 0.13 0.14 0.12 0.13 0.21 0.21 0.25 0.25 0.26 0.34 0.46 0.60 0.76 0.87 0.85 0.83 0.83 0.75 0.65 0.62 0.60
0.81 0.82 0.64 0.38 0.27 0.22 0.16 0.15 0.10 0.08 0.08 0.08 0.08 0.08 0.09 0.10 0.09 0.08 0.08 0.08 0.09 0.10 0.10 0.11 0.12 0.13 0.13 0.17 0.21 0.23 0.25 0.22 0.24 0.32 0.47 0.65 0.75 0.77 0.77 0.78 0.76 0.71 0.65 0.62
0.41 0.30 0.23 0.19 0.18 0.13 0.10 0.10 0.07 0.06 0.05 0.08 0.10 0.09 0.08 0.09 0.08 0.08 0.08 0.07 0.08 0.09 0.09 0.10 0.12 0.13 0.16 0.19 0.20 0.21 0.23 0.23 0.22 0.22 0.27 0.37 0.44 0.51 0.59 0.64 0.64 0.65 0.65 0.65
0.32 0.19 0.14 0.14 0.14 0.11 0.09 0.09 0.07 0.06 0.06 0.07 0.10 0.10 0.07 0.08 0.07 0.08 0.09 0.09 0.08 0.09 0.11 0.11 0.12 0.12 0.15 0.19 0.22 0.22 0.22 0.24 0.25 0.26 0.29 0.30 0.33 0.36 0.40 0.43 0.53 0.59 0.60 0.63
0.29 0.20 0.15 0.13 0.13 0.13 0.11 0.09 0.08 0.08 0.09 0.10 0.11 0.11 0.08 0.06 0.06 0.07 0.08 0.09 0.09 0.11 0.13 0.12 0.13 0.14 0.14 0.15 0.18 0.19 0.21 0.21 0.20 0.21 0.25 0.26 0.28 0.30 0.33 0.33 0.40 0.43 0.45 0.45
0.15 0.15 0.14 0.12 0.14 0.13 0.11 0.08 0.07 0.07 0.07 0.07 0.08 0.10 0.07 0.05 0.06 0.10 0.13 0.10 0.10 0.11 0.12 0.13 0.13 0.13 0.15 0.16 0.16 0.19 0.19 0.20 0.20 0.18 0.21 0.24 0.25 0.26 0.29 0.29 0.27 0.27 0.31 0.34
0.08 0.12 0.16 0.14 0.13 0.12 0.10 0.08 0.07 0.06 0.06 0.05 0.06 0.09 0.07 0.06 0.08 0.10 0.11 0.12 0.12 0.12 0.13 0.14 0.13 0.11 0.14 0.16 0.19 0.19 0.21 0.23 0.23 0.24 0.25 0.23 0.24 0.28 0.31 0.33 0.29 0.22 0.23 0.28
0.09 0.10 0.12 0.12 0.11 0.10 0.09 0.08 0.07 0.06 0.05 0.06 0.07 0.08 0.09 0.11 0.12 0.14 0.14 0.13 0.11 0.11 0.13 0.15 0.14 0.13 0.14 0.17 0.20 0.20 0.21 0.21 0.23 0.28 0.28 0.28 0.29 0.33 0.33 0.31 0.29 0.25 0.23 0.24
0.11 0.11 0.12 0.12 0.10 0.08 0.08 0.07 0.06 0.07 0.06 0.08 0.10 0.09 0.09 0.10 0.14 0.18 0.21 0.19 0.15 0.12 0.13 0.16 0.17 0.17 0.19 0.21 0.22 0.22 0.23 0.25 0.26 0.27 0.29 0.32 0.31 0.30 0.29 0.28 0.27 0.24 0.24 0.25
0.14 0.13 0.12 0.11 0.08 0.06 0.06 0.08 0.08 0.09 0.08 0.09 0.12 0.12 0.09 0.09 0.10 0.14 0.16 0.19 0.18 0.16 0.14 0.17 0.19 0.20 0.20 0.20 0.22 0.23 0.24 0.26 0.28 0.27 0.24 0.26 0.27 0.26 0.27 0.25 0.24 0.22 0.21 0.23
0.14 0.12 0.09 0.07 0.06 0.06 0.07 0.09 0.10 0.09 0.09 0.10 0.13 0.14 0.12 0.12 0.12 0.13 0.15 0.20 0.19 0.16 0.14 0.15 0.19 0.22 0.23 0.23 0.24 0.25 0.25 0.23 0.22 0.22 0.24 0.24 0.25 0.26 0.28 0.30 0.30 0.27 0.26 0.25
0.11 0.09 0.07 0.07 0.07 0.09 0.11 0.11 0.11 0.10 0.10 0.11 0.12 0.14 0.15 0.15 0.14 0.14 0.16 0.22 0.22 0.18 0.14 0.14 0.18 0.20 0.21 0.22 0.23 0.22 0.23 0.23 0.22 0.21 0.22 0.24 0.27 0.28 0.29 0.30 0.31 0.31 0.32 0.31
0.14 0.12 0.11 0.10 0.12 0.13 0.13 0.12 0.12 0.11 0.10 0.11 0.12 0.13 0.14 0.15 0.14 0.15 0.17 0.23 0.24 0.20 0.16 0.16 0.16 0.16 0.19 0.21 0.24 0.22 0.22 0.20 0.21 0.23 0.23 0.26 0.27 0.28 0.29 0.29 0.31 0.31 0.31 0.31
0.18 0.18 0.16 0.16 0.16 0.14 0.14 0.14 0.13 0.13 0.13 0.13 0.14 0.14 0.16 0.16 0.15 0.16 0.18 0.22 0.20 0.17 0.17 0.19 0.17 0.17 0.20 0.24 0.27 0.24 0.23 0.21 0.21 0.24 0.23 0.25 0.29 0.32 0.35 0.33 0.31 0.30 0.30 0.30
0.19 0.19 0.18 0.16 0.16 0.16 0.15 0.14 0.14 0.14 0.14 0.15 0.15 0.16 0.18 0.20 0.19 0.18 0.18 0.22 0.21 0.22 0.22 0.20 0.19 0.20 0.24 0.26 0.25 0.25 0.26 0.24 0.23 0.25 0.26 0.27 0.29 0.34 0.39 0.40 0.37 0.34 0.33 0.35
0.18 0.18 0.19 0.18 0.17 0.16 0.15 0.16 0.17 0.17 0.18 0.18 0.19 0.21 0.26 0.28 0.27 0.27 0.26 0.24 0.24 0.26 0.23 0.22 0.25 0.29 0.30 0.25 0.24 0.25 0.27 0.29 0.30 0.30 0.32 0.34 0.35 0.38 0.42 0.44 0.45 0.43 0.41 0.42
0.23 0.21 0.21 0.21 0.20 0.20 0.21 0.22 0.21 0.20 0.22 0.24 0.24 0.27 0.31 0.34 0.35 0.34 0.34 0.34 0.32 0.30 0.25 0.27 0.29 0.30 0.31 0.26 0.28 0.30 0.32 0.34 0.37 0.37 0.39 0.42 0.42 0.44 0.47 0.48 0.50 0.51 0.50 0.49
0.30 0.27 0.28 0.30 0.32 0.31 0.31 0.29 0.28 0.25 0.24 0.28 0.28 0.27 0.29 0.31 0.33 0.36 0.38 0.37 0.36 0.35 0.34 0.37 0.38 0.37 0.32 0.30 0.33 0.35 0.37 0.40 0.45 0.47 0.45 0.46 0.46 0.46 0.47 0.50 0.51 0.53 0.54 0.54
0.28 0.27 0.27 0.30 0.33 0.33 0.32 0.32 0.33 0.32 0.30 0.31 0.31 0.29 0.31 0.30 0.31 0.33 0.37 0.39 0.40 0.42 0.39 0.37 0.35 0.35 0.34 0.36 0.37 0.39 0.40 0.41 0.42 0.41 0.44 0.48 0.50 0.50 0.51 0.53 0.54 0.56 0.58 0.58
0.25 0.24 0.24 0.27 0.31 0.31 0.30 0.32 0.37 0.39 0.38 0.38 0.40 0.39 0.37 0.37 0.37 0.37 0.37 0.39 0.44 0.45 0.45 0.43 0.42 0.41 0.41 0.43 0.43 0.43 0.44 0.44 0.42 0.43 0.45 0.48 0.52 0.55 0.56 0.57 0.59 0.62 0.64 0.65

GEFSNGP_prec_meanprecacc_264.txt.gz
Total_Precipitation_Accumulation
0.32 0.30 0.35 0.41 0.43 0.52 0.67 0.84 1.09 0.97 0.76 0.64 0.63 0.59 0.60 0.67 0.60 0.56 0.55 0.55 0.56 0.55 0.55 0.56 0.60 0.68 0.76 0.88 1.08 1.20 1.29 1.28 1.18 1.11 1.01 0.93 0.85 0.76 0.77 0.68 0.65 0.71 0.87 1.02
0.18 0.19 0.24 0.34 0.47 0.60 0.67 0.73 0.75 0.66 0.62 0.48 0.45 0.41 0.41 0.47 0.48 0.48 0.44 0.39 0.39 0.43 0.44 0.49 0.52 0.60 0.61 0.72 0.89 1.01 1.09 1.13 1.19 1.15 0.98 0.87 0.77 0.69 0.66 0.65 0.64 0.64 0.73 0.87
0.21 0.17 0.28 0.49 0.58 0.65 0.65 0.59 0.51 0.49 0.43 0.32 0.29 0.25 0.25 0.31 0.36 0.41 0.40 0.34 0.32 0.33 0.36 0.43 0.52 0.56 0.60 0.71 0.84 0.87 0.93 0.96 1.01 1.01 0.86 0.79 0.68 0.61 0.59 0.59 0.61 0.61 0.67 0.80
0.31 0.26 0.50 0.68 0.55 0.50 0.56 0.45 0.31 0.28 0.28 0.25 0.21 0.18 0.16 0.17 0.19 0.22 0.25 0.26 0.30 0.29 0.29 0.32 0.40 0.51 0.65 0.69 0.70 0.71 0.77 0.78 0.79 0.81 0.76 0.69 0.59 0.56 0.57 0.59 0.63 0.63 0.65 0.69
0.47 0.44 0.55 0.61 0.42 0.40 0.48 0.46 0.26 0.19 0.18 0.15 0.14 0.13 0.11 0.11 0.13 0.14 0.14 0.17 0.21 0.21 0.21 0.22 0.25 0.28 0.34 0.40 0.44 0.45 0.55 0.63 0.67 0.69 0.67 0.62 0.56 0.62 0.67 0.65 0.66 0.64 0.60 0.60
0.55 0.63 0.70 0.48 0.21 0.20 0.35 0.55 0.24 0.14 0.12 0.10 0.11 0.14 0.12 0.12 0.13 0.11 0.10 0.10 0.13 0.17 0.16 0.15 0.16 0.17 0.20 0.24 0.28 0.31 0.37 0.45 0.54 0.60 0.63 0.65 0.75 0.82 0.84 0.79 0.71 0.63 0.60 0.57
0.60 0.80 0.75 0.44 0.20 0.22 0.42 0.57 0.29 0.14 0.10 0.11 0.12 0.12 0.10 0.11 0.11 0.10 0.09 0.08 0.10 0.12 0.13 0.14 0.15 0.14 0.17 0.20 0.21 0.23 0.23 0.29 0.41 0.58 0.67 0.76 0.88 0.91 0.88 0.81 0.69 0.62 0.59 0.57
0.75 0.97 0.99 0.50 0.28 0.35 0.34 0.23 0.18 0.12 0.11 0.10 0.10 0.09 0.09 0.09 0.08 0.09 0.10 0.08 0.08 0.09 0.10 0.13 0.15 0.13 0.15 0.22 0.22 0.26 0.26 0.27 0.35 0.47 0.61 0.77 0.88 0.86 0.84 0.84 0.76 0.67 0.64 0.63
0.83 0.83 0.64 0.38 0.28 0.22 0.16 0.16 0.10 0.09 0.10 0.10 0.09 0.09 0.09 0.10 0.09 0.08 0.08 0.08 0.09 0.10 0.10 0.11 0.12 0.14 0.15 0.18 0.22 0.24 0.27 0.23 0.25 0.33 0.48 0.66 0.76 0.77 0.78 0.79 0.76 0.73 0.67 0.64
0.42 0.31 0.24 0.20 0.18 0.13 0.10 0.10 0.07 0.06 0.06 0.10 0.12 0.11 0.09 0.09 0.09 0.09 0.09 0.08 0.08 0.09 0.10 0.10 0.12 0.14 0.17 0.20 0.20 0.21 0.23 0.24 0.22 0.23 0.28 0.37 0.45 0.52 0.60 0.64 0.65 0.66 0.66 0.66
0.32 0.19 0.14 0.14 0.14 0.11 0.09 0.09 0.08 0.07 0.06 0.07 0.11 0.11 0.08 0.09 0.08 0.09 0.09 0.09 0.08 0.10 0.12 0.11 0.13 0.12 0.15 0.19 0.22 0.22 0.23 0.24 0.25 0.26 0.29 0.31 0.34 0.37 0.41 0.44 0.54 0.61 0.61 0.63
0.30 0.20 0.15 0.13 0.13 0.14 0.12 0.10 0.09 0.08 0.10 0.11 0.12 0.12 0.11 0.09 0.08 0.08 0.09 0.10 0.10 0.12 0.13 0.13 0.13 0.14 0.14 0.16 0.18 0.20 0.21 0.21 0.20 0.22 0.25 0.26 0.29 0.31 0.34 0.34 0.41 0.45 0.46 0.46
0.15 0.15 0.14 0.12 0.14 0.14 0.11 0.09 0.08 0.08 0.08 0.09 0.10 0.12 0.09 0.07 0.07 0.11 0.13 0.11 0.10 0.12 0.13 0.14 0.14 0.14 0.16 0.17 0.16 0.19 0.20 0.20 0.20 0.19 0.22 0.25 0.25 0.27 0.30 0.30 0.28 0.28 0.32 0.35
0.08 0.12 0.16 0.15 0.13 0.12 0.10 0.08 0.08 0.07 0.07 0.07 0.08 0.10 0.09 0.07 0.08 0.11 0.11 0.12 0.13 0.13 0.14 0.15 0.14 0.13 0.15 0.17 0.19 0.21 0.23 0.25 0.25 0.26 0.26 0.24 0.25 0.29 0.32 0.33 0.29 0.22 0.23 0.28
0.09 0.10 0.13 0.13 0.12 0.10 0.09 0.08 0.08 0.08 0.07 0.09 0.10 0.09 0.10 0.11 0.13 0.15 0.15 0.13 0.11 0.11 0.13 0.16 0.15 0.15 0.16 0.19 0.21 0.22 0.22 0.23 0.25 0.29 0.29 0.29 0.30 0.34 0.34 0.32 0.29 0.26 0.24 0.24
0.11 0.11 0.12 0.13 0.11 0.09 0.09 0.08 0.07 0.08 0.07 0.10 0.12 0.10 0.09 0.11 0.14 0.18 0.22 0.19 0.15 0.12 0.14 0.17 0.18 0.19 0.21 0.23 0.24 0.24 0.24 0.27 0.27 0.28 0.30 0.33 0.32 0.32 0.30 0.29 0.27 0.25 0.24 0.25
0.14 0.13 0.12 0.11 0.09 0.07 0.07 0.08 0.09 0.09 0.08 0.10 0.14 0.13 0.10 0.09 0.11 0.15 0.17 0.19 0.19 0.17 0.15 0.18 0.22 0.24 0.24 0.25 0.26 0.27 0.26 0.27 0.29 0.28 0.25 0.27 0.28 0.28 0.28 0.26 0.25 0.23 0.22 0.23
0.14 0.12 0.09 0.08 0.06 0.07 0.08 0.10 0.10 0.09 0.09 0.11 0.14 0.15 0.13 0.12 0.12 0.13 0.16 0.21 0.20 0.17 0.16 0.18 0.23 0.26 0.27 0.28 0.28 0.29 0.28 0.26 0.23 0.23 0.25 0.25 0.26 0.27 0.29 0.32 0.31 0.28 0.27 0.26
0.11 0.09 0.07 0.07 0.07 0.09 0.11 0.12 0.11 0.10 0.10 0.11 0.12 0.14 0.15 0.15 0.15 0.15 0.17 0.23 0.24 0.21 0.17 0.16 0.21 0.22 0.24 0.26 0.26 0.26 0.27 0.26 0.25 0.24 0.24 0.26 0.29 0.29 0.30 0.31 0.33 0.32 0.33 0.32
0.14 0.12 0.11 0.10 0.12 0.13 0.13 0.13 0.12 0.11 0.10 0.11 0.12 0.14 0.15 0.15 0.15 0.16 0.18 0.25 0.27 0.24 0.18 0.18 0.18 0.18 0.21 0.23 0.28 0.25 0.26 0.23 0.24 0.27 0.28 0.30 0.31 0.32 0.32 0.31 0.32 0.33 0.32 0.32
0.19 0.18 0.17 0.16 0.16 0.14 0.14 0.14 0.13 0.13 0.13 0.13 0.14 0.15 0.16 0.17 0.16 0.17 0.20 0.25 0.23 0.19 0.19 0.21 0.18 0.18 0.21 0.27 0.33 0.30 0.28 0.25 0.26 0.28 0.28 0.30 0.33 0.36 0.40 0.37 0.34 0.32 0.31 0.31
0.20 0.19 0.18 0.16 0.16 0.16 0.15 0.14 0.14 0.15 0.14 0.16 0.16 0.16 0.19 0.21 0.20 0.19 0.20 0.23 0.23 0.25 0.24 0.22 0.20 0.22 0.25 0.29 0.28 0.30 0.31 0.29 0.28 0.29 0.30 0.31 0.33 0.38 0.42 0.44 0.41 0.37 0.37 0.38
0.18 0.18 0.19 0.18 0.17 0.17 0.16 0.16 0.17 0.17 0.18 0.19 0.20 0.23 0.28 0.30 0.29 0.28 0.27 0.25 0.24 0.27 0.24 0.23 0.26 0.31 0.32 0.26 0.26 0.28 0.30 0.33 0.34 0.35 0.37 0.39 0.39 0.41 0.45 0.47 0.48 0.46 0.45 0.46
0.23 0.21 0.21 0.21 0.20 0.20 0.21 0.22 0.21 0.21 0.23 0.25 0.26 0.28 0.33 0.36 0.36 0.35 0.34 0.35 0.33 0.30 0.26 0.28 0.31 0.33 0.34 0.29 0.31 0.33 0.34 0.38 0.41 0.43 0.45 0.47 0.46 0.48 0.50 0.51 0.52 0.53 0.52 0.53
0.30 0.27 0.28 0.31 0.32 0.31 0.31 0.30 0.28 0.26 0.26 0.29 0.30 0.28 0.31 0.33 0.34 0.37 0.38 0.38 0.37 0.36 0.34 0.38 0.39 0.39 0.35 0.34 0.37 0.39 0.40 0.43 0.48 0.50 0.50 0.51 0.51 0.51 0.51 0.54 0.55 0.56 0.57 0.58
0.28 0.27 0.27 0.30 0.34 0.33 0.33 0.32 0.33 0.33 0.32 0.33 0.33 0.32 0.33 0.32 0.32 0.34 0.37 0.40 0.41 0.43 0.40 0.37 0.36 0.37 0.37 0.40 0.42 0.43 0.43 0.44 0.45 0.45 0.48 0.53 0.56 0.56 0.57 0.59 0.59 0.61 0.63 0.64
0.26 0.24 0.24 0.28 0.32 0.31 0.31 0.33 0.37 0.40 0.41 0.42 0.45 0.43 0.40 0.39 0.39 0.38 0.38 0.40 0.45 0.46 0.45 0.44 0.43 0.42 0.43 0.45 0.47 0.48 0.49 0.48 0.46 0.46 0.49 0.52 0.57 0.61 0.63 0.64 0.65 0.68 0.70 0.71

GEFSNGP_prec_meanprecacc_270.txt.gz
Total_Precipitation_Accumulation
0.33 0.31 0.35 0.42 0.43 0.53 0.68 0.85 1.09 0.98 0.77 0.65 0.63 0.59 0.61 0.67 0.60 0.56 0.55 0.56 0.57 0.56 0.57 0.58 0.62 0.70 0.77 0.89 1.10 1.23 1.31 1.30 1.21 1.14 1.05 0.97 0.87 0.79 0.80 0.70 0.67 0.73 0.89 1.04
0.19 0.19 0.24 0.35 0.47 0.61 0.67 0.74 0.76 0.66 0.62 0.48 0.46 0.41 0.42 0.48 0.48 0.48 0.44 0.39 0.40 0.45 0.47 0.51 0.54 0.61 0.62 0.73 0.90 1.03 1.11 1.14 1.21 1.18 1.01 0.90 0.80 0.71 0.69 0.67 0.65 0.66 0.75 0.90
0.21 0.17 0.28 0.49 0.58 0.65 0.65 0.60 0.52 0.50 0.44 0.32 0.29 0.26 0.26 0.31 0.36 0.42 0.41 0.35 0.34 0.34 0.38 0.46 0.54 0.57 0.61 0.72 0.85 0.89 0.95 0.97 1.02 1.03 0.88 0.81 0.70 0.63 0.62 0.62 0.63 0.63 0.69 0.82
0.32 0.27 0.50 0.69 0.56 0.50 0.56 0.46 0.32 0.30 0.29 0.26 0.21 0.18 0.16 0.17 0.19 0.23 0.26 0.27 0.32 0.30 0.30 0.34 0.41 0.52 0.65 0.70 0.71 0.72 0.78 0.79 0.80 0.82 0.78 0.71 0.61 0.58 0.59 0.62 0.66 0.66 0.68 0.73
0.48 0.45 0.55 0.62 0.43 0.41 0.49 0.47 0.27 0.21 0.19 0.16 0.15 0.14 0.12 0.12 0.13 0.14 0.14 0.18 0.22 0.23 0.23 0.24 0.27 0.29 0.35 0.41 0.45 0.48 0.57 0.64 0.68 0.70 0.68 0.63 0.58 0.65 0.69 0.67 0.67 0.67 0.63 0.64
0.56 0.64 0.71 0.48 0.21 0.21 0.36 0.56 0.25 0.14 0.12 0.11 0.12 0.14 0.13 0.12 0.13 0.12 0.10 0.10 0.14 0.18 0.17 0.16 0.17 0.18 0.21 0.26 0.30 0.34 0.40 0.46 0.55 0.61 0.64 0.66 0.77 0.84 0.85 0.81 0.74 0.66 0.62 0.60
0.61 0.81 0.75 0.44 0.20 0.22 0.42 0.57 0.29 0.14 0.11 0.13 0.13 0.13 0.11 0.11 0.12 0.11 0.09 0.08 0.10 0.13 0.14 0.15 0.16 0.16 0.18 0.22 0.22 0.25 0.24 0.31 0.43 0.60 0.68 0.77 0.90 0.93 0.90 0.83 0.72 0.65 0.62 0.58
0.75 0.97 0.99 0.50 0.29 0.35 0.34 0.23 0.18 0.12 0.11 0.11 0.11 0.11 0.11 0.10 0.09 0.09 0.10 0.09 0.09 0.10 0.11 0.14 0.16 0.15 0.16 0.24 0.25 0.29 0.28 0.29 0.37 0.50 0.64 0.79 0.90 0.89 0.87 0.87 0.79 0.69 0.66 0.64
0.83 0.83 0.65 0.39 0.28 0.23 0.17 0.17 0.11 0.10 0.11 0.12 0.10 0.10 0.10 0.10 0.09 0.08 0.09 0.08 0.09 0.10 0.11 0.12 0.13 0.16 0.17 0.20 0.24 0.26 0.29 0.25 0.27 0.36 0.50 0.68 0.77 0.79 0.80 0.80 0.77 0.74 0.68 0.65
0.43 0.32 0.24 0.21 0.18 0.14 0.10 0.11 0.08 0.07 0.07 0.11 0.13 0.13 0.10 0.10 0.10 0.10 0.10 0.08 0.08 0.10 0.11 0.12 0.13 0.16 0.19 0.23 0.24 0.24 0.26 0.27 0.25 0.25 0.31 0.40 0.48 0.54 0.62 0.67 0.67 0.67 0.67 0.67
0.32 0.19 0.14 0.15 0.15 0.12 0.10 0.09 0.08 0.07 0.07 0.08 0.11 0.12 0.09 0.10 0.09 0.09 0.10 0.10 0.09 0.11 0.13 0.13 0.14 0.15 0.17 0.21 0.24 0.25 0.26 0.28 0.29 0.30 0.33 0.35 0.37 0.41 0.45 0.48 0.58 0.64 0.63 0.65
0.30 0.20 0.15 0.13 0.13 0.14 0.12 0.10 0.09 0.09 0.10 0.11 0.12 0.13 0.12 0.10 0.10 0.09 0.10 0.11 0.12 0.14 0.15 0.15 0.15 0.16 0.16 0.18 0.20 0.22 0.24 0.24 0.24 0.25 0.29 0.30 0.32 0.36 0.39 0.40 0.46 0.49 0.49 0.49
0.15 0.15 0.14 0.13 0.14 0.14 0.11 0.09 0.08 0.08 0.08 0.09 0.10 0.13 0.10 0.08 0.09 0.13 0.16 0.13 0.12 0.13 0.15 0.16 0.16 0.16 0.18 0.19 0.19 0.22 0.23 0.24 0.24 0.23 0.26 0.29 0.30 0.32 0.35 0.35 0.32 0.31 0.34 0.37
0.08 0.12 0.16 0.15 0.13 0.12 0.10 0.09 0.08 0.07 0.07 0.07 0.08 0.11 0.11 0.10 0.11 0.13 0.14 0.15 0.14 0.14 0.15 0.16 0.15 0.14 0.16 0.19 0.22 0.24 0.26 0.30 0.30 0.31 0.32 0.29 0.30 0.33 0.35 0.36 0.31 0.24 0.25 0.29
0.09 0.10 0.13 0.13 0.12 0.10 0.09 0.09 0.08 0.08 0.07 0.09 0.11 0.11 0.13 0.15 0.16 0.17 0.16 0.14 0.12 0.11 0.14 0.16 0.15 0.15 0.17 0.20 0.24 0.25 0.26 0.28 0.30 0.34 0.34 0.33 0.34 0.38 0.37 0.34 0.31 0.27 0.25 0.25
0.11 0.11 0.12 0.13 0.11 0.09 0.09 0.08 0.08 0.09 0.08 0.11 0.13 0.11 0.11 0.13 0.16 0.19 0.22 0.20 0.16 0.13 0.14 0.18 0.18 0.19 0.22 0.25 0.27 0.27 0.27 0.31 0.32 0.32 0.35 0.37 0.36 0.35 0.34 0.32 0.30 0.27 0.26 0.27
0.14 0.13 0.12 0.11 0.09 0.07 0.07 0.09 0.10 0.10 0.10 0.12 0.15 0.13 0.10 0.10 0.11 0.15 0.17 0.20 0.19 0.17 0.16 0.19 0.23 0.26 0.27 0.27 0.30 0.31 0.30 0.31 0.33 0.32 0.29 0.31 0.32 0.31 0.31 0.30 0.28 0.24 0.23 0.25
0.15 0.13 0.09 0.08 0.06 0.07 0.08 0.10 0.11 0.10 0.10 0.13 0.17 0.16 0.14 0.13 0.12 0.14 0.17 0.21 0.20 0.17 0.16 0.19 0.24 0.28 0.29 0.30 0.31 0.33 0.33 0.30 0.27 0.27 0.28 0.28 0.30 0.31 0.32 0.35 0.34 0.30 0.28 0.27
0.12 0.10 0.08 0.07 0.07 0.09 0.11 0.12 0.12 0.11 0.11 0.12 0.14 0.16 0.16 0.16 0.15 0.15 0.17 0.24 0.24 0.21 0.18 0.17 0.22 0.23 0.25 0.27 0.29 0.28 0.30 0.31 0.30 0.29 0.29 0.30 0.32 0.32 0.33 0.34 0.35 0.34 0.34 0.33
0.15 0.13 0.11 0.11 0.12 0.13 0.13 0.13 0.12 0.11 0.11 0.11 0.13 0.14 0.15 0.16 0.15 0.16 0.19 0.25 0.28 0.25 0.19 0.19 0.19 0.19 0.22 0.24 0.31 0.28 0.28 0.26 0.28 0.31 0.34 0.38 0.38 0.38 0.37 0.35 0.36 0.35 0.33 0.33
0.19 0.19 0.17 0.17 0.16 0.14 0.14 0.14 0.13 0.13 0.13 0.13 0.14 0.15 0.16 0.17 0.16 0.17 0.21 0.26 0.23 0.20 0.20 0.22 0.18 0.19 0.22 0.28 0.35 0.32 0.30 0.27 0.28 0.31 0.32 0.35 0.38 0.43 0.48 0.46 0.43 0.40 0.35 0.33
0.20 0.20 0.18 0.16 0.16 0.16 0.16 0.14 0.14 0.15 0.15 0.16 0.16 0.17 0.19 0.21 0.21 0.19 0.20 0.24 0.23 0.25 0.24 0.22 0.20 0.23 0.27 0.30 0.29 0.31 0.33 0.31 0.30 0.32 0.33 0.34 0.37 0.42 0.48 0.51 0.48 0.44 0.42 0.42
0.19 0.19 0.19 0.18 0.17 0.17 0.16 0.16 0.17 0.18 0.19 0.19 0.20 0.23 0.28 0.31 0.30 0.29 0.28 0.25 0.25 0.27 0.25 0.24 0.27 0.32 0.33 0.28 0.27 0.29 0.32 0.35 0.36 0.38 0.40 0.42 0.42 0.45 0.48 0.50 0.52 0.51 0.49 0.50
0.23 0.21 0.21 0.21 0.21 0.20 0.21 0.22 0.21 0.21 0.23 0.25 0.26 0.29 0.34 0.39 0.38 0.36 0.35 0.35 0.33 0.31 0.27 0.29 0.32 0.34 0.35 0.30 0.32 0.34 0.36 0.40 0.44 0.45 0.47 0.50 0.49 0.51 0.54 0.55 0.56 0.56 0.56 0.56
0.30 0.28 0.28 0.31 0.32 0.31 0.31 0.30 0.28 0.26 0.26 0.29 0.30 0.29 0.32 0.35 0.36 0.39 0.40 0.39 0.38 0.37 0.35 0.39 0.41 0.41 0.37 0.35 0.38 0.40 0.42 0.45 0.50 0.52 0.51 0.53 0.54 0.54 0.55 0.58 0.60 0.60 0.61 0.61
0.28 0.27 0.27 0.30 0.34 0.33 0.33 0.33 0.34 0.33 0.33 0.34 0.34 0.33 0.34 0.34 0.34 0.36 0.39 0.41 0.42 0.44 0.41 0.39 0.37 0.38 0.39 0.42 0.43 0.45 0.45 0.46 0.48 0.47 0.49 0.54 0.57 0.58 0.60 0.63 0.63 0.65 0.67 0.68
0.26 0.24 0.24 0.28 0.32 0.32 0.31 0.34 0.39 0.41 0.42 0.44 0.47 0.45 0.42 0.41 0.40 0.40 0.39 0.41 0.46 0.47 0.46 0.45 0.44 0.43 0.45 0.47 0.49 0.50 0.51 0.51 0.48 0.48 0.50 0.53 0.58 0.63 0.66 0.67 0.69 0.72 0.74 0.75

GEFSNGP_prec_meanprecacc_276.txt.gz
Total_Precipitation_Accumulation
0.33 0.31 0.35 0.42 0.44 0.53 0.68 0.85 1.09 0.98 0.77 0.65 0.63 0.59 0.61 0.67 0.60 0.56 0.56 0.57 0.58 0.56 0.58 0.60 0.64 0.73 0.80 0.91 1.12 1.25 1.35 1.34 1.25 1.18 1.09 1.01 0.92 0.85 0.85 0.76 0.71 0.77 0.93 1.08
0.19 0.20 0.25 0.35 0.47 0.61 0.68 0.74 0.76 0.67 0.63 0.49 0.46 0.42 0.42 0.48 0.48 0.49 0.45 0.40 0.41 0.45 0.47 0.52 0.56 0.64 0.65 0.75 0.92 1.05 1.13 1.17 1.23 1.20 1.04 0.92 0.82 0.75 0.72 0.70 0.70 0.70 0.78 0.93
0.22 0.18 0.29 0.50 0.58 0.66 0.66 0.61 0.53 0.50 0.45 0.32 0.29 0.26 0.26 0.32 0.36 0.42 0.41 0.36 0.34 0.35 0.39 0.47 0.55 0.58 0.63 0.74 0.87 0.91 0.98 1.01 1.05 1.05 0.90 0.83 0.73 0.66 0.64 0.64 0.67 0.66 0.72 0.84
0.32 0.27 0.51 0.70 0.56 0.51 0.57 0.47 0.33 0.30 0.29 0.26 0.21 0.18 0.17 0.17 0.20 0.23 0.26 0.27 0.32 0.30 0.31 0.35 0.42 0.53 0.67 0.72 0.73 0.74 0.81 0.84 0.83 0.84 0.80 0.74 0.63 0.60 0.61 0.64 0.68 0.69 0.72 0.77
0.48 0.45 0.56 0.62 0.43 0.42 0.50 0.48 0.27 0.21 0.20 0.17 0.16 0.14 0.12 0.12 0.13 0.14 0.15 0.18 0.23 0.23 0.23 0.25 0.27 0.30 0.37 0.43 0.48 0.51 0.62 0.69 0.72 0.74 0.71 0.67 0.61 0.68 0.72 0.70 0.70 0.69 0.67 0.67
0.56 0.64 0.71 0.48 0.22 0.21 0.37 0.56 0.25 0.14 0.13 0.11 0.12 0.15 0.14 0.12 0.13 0.12 0.10 0.11 0.14 0.18 0.18 0.17 0.18 0.19 0.23 0.29 0.34 0.38 0.45 0.51 0.58 0.65 0.68 0.71 0.82 0.89 0.90 0.85 0.76 0.68 0.64 0.61
0.61 0.81 0.75 0.44 0.21 0.22 0.43 0.58 0.29 0.14 0.11 0.13 0.14 0.14 0.12 0.13 0.13 0.11 0.10 0.09 0.11 0.13 0.14 0.16 0.17 0.16 0.20 0.25 0.27 0.29 0.29 0.35 0.46 0.62 0.71 0.80 0.94 0.96 0.93 0.87 0.76 0.67 0.63 0.60
0.75 0.97 0.99 0.50 0.29 0.35 0.35 0.23 0.18 0.13 0.11 0.11 0.11 0.12 0.13 0.13 0.12 0.12 0.12 0.10 0.09 0.10 0.11 0.14 0.17 0.16 0.18 0.26 0.28 0.32 0.33 0.34 0.40 0.52 0.67 0.83 0.95 0.93 0.92 0.91 0.83 0.73 0.69 0.66
0.83 0.83 0.65 0.39 0.29 0.23 0.17 0.17 0.11 0.10 0.11 0.12 0.11 0.11 0.11 0.11 0.11 0.11 0.12 0.11 0.10 0.11 0.11 0.12 0.14 0.17 0.19 0.22 0.26 0.28 0.31 0.29 0.30 0.38 0.53 0.71 0.80 0.82 0.83 0.85 0.81 0.77 0.72 0.67
0.43 0.32 0.25 0.21 0.19 0.14 0.11 0.11 0.08 0.07 0.07 0.12 0.14 0.14 0.11 0.10 0.10 0.11 0.10 0.09 0.09 0.11 0.12 0.12 0.14 0.17 0.21 0.25 0.25 0.25 0.27 0.28 0.28 0.28 0.33 0.43 0.52 0.58 0.66 0.70 0.70 0.70 0.71 0.70
0.33 0.20 0.15 0.15 0.15 0.12 0.10 0.10 0.08 0.08 0.07 0.09 0.12 0.13 0.10 0.11 0.09 0.10 0.10 0.11 0.10 0.12 0.14 0.14 0.16 0.17 0.19 0.23 0.26 0.26 0.27 0.29 0.30 0.33 0.36 0.39 0.42 0.45 0.50 0.53 0.62 0.68 0.67 0.70
0.30 0.21 0.16 0.13 0.13 0.14 0.12 0.10 0.10 0.10 0.11 0.12 0.13 0.14 0.12 0.11 0.10 0.10 0.11 0.12 0.14 0.15 0.17 0.16 0.17 0.18 0.17 0.19 0.21 0.23 0.25 0.26 0.25 0.28 0.32 0.34 0.38 0.41 0.45 0.45 0.53 0.55 0.55 0.54
0.15 0.15 0.14 0.13 0.14 0.14 0.11 0.09 0.09 0.08 0.09 0.10 0.11 0.13 0.11 0.08 0.09 0.14 0.17 0.16 0.15 0.16 0.16 0.17 0.17 0.17 0.19 0.20 0.20 0.23 0.24 0.25 0.26 0.25 0.29 0.33 0.34 0.38 0.42 0.41 0.38 0.36 0.40 0.43
0.08 0.12 0.16 0.15 0.13 0.12 0.10 0.09 0.08 0.08 0.07 0.07 0.09 0.12 0.12 0.10 0.12 0.15 0.16 0.17 0.17 0.16 0.17 0.18 0.17 0.15 0.18 0.21 0.24 0.25 0.28 0.31 0.32 0.33 0.34 0.32 0.34 0.38 0.40 0.40 0.36 0.28 0.29 0.33
0.09 0.10 0.13 0.13 0.12 0.10 0.09 0.09 0.08 0.08 0.07 0.10 0.11 0.11 0.13 0.15 0.17 0.19 0.19 0.16 0.14 0.13 0.15 0.18 0.17 0.17 0.18 0.22 0.25 0.26 0.28 0.30 0.32 0.35 0.36 0.35 0.37 0.42 0.41 0.39 0.35 0.31 0.28 0.29
0.11 0.11 0.12 0.13 0.11 0.09 0.09 0.08 0.08 0.09 0.08 0.11 0.13 0.11 0.11 0.13 0.17 0.21 0.24 0.21 0.17 0.14 0.15 0.18 0.19 0.20 0.23 0.26 0.29 0.29 0.29 0.33 0.34 0.34 0.36 0.39 0.38 0.38 0.38 0.38 0.36 0.33 0.31 0.32
0.15 0.14 0.13 0.12 0.09 0.07 0.08 0.09 0.10 0.10 0.10 0.12 0.15 0.14 0.11 0.10 0.12 0.16 0.18 0.21 0.20 0.18 0.17 0.20 0.24 0.26 0.27 0.28 0.31 0.32 0.31 0.32 0.35 0.33 0.31 0.33 0.34 0.34 0.35 0.34 0.32 0.30 0.29 0.32
0.15 0.13 0.10 0.08 0.06 0.07 0.08 0.11 0.11 0.10 0.10 0.13 0.17 0.16 0.14 0.14 0.14 0.15 0.18 0.22 0.21 0.18 0.17 0.20 0.25 0.28 0.29 0.30 0.31 0.33 0.34 0.31 0.28 0.28 0.29 0.30 0.31 0.32 0.35 0.38 0.37 0.33 0.32 0.32
0.12 0.11 0.08 0.07 0.07 0.09 0.12 0.12 0.12 0.11 0.11 0.12 0.15 0.18 0.18 0.18 0.17 0.17 0.18 0.24 0.25 0.22 0.18 0.18 0.22 0.23 0.25 0.27 0.30 0.29 0.31 0.32 0.31 0.30 0.30 0.32 0.34 0.33 0.34 0.36 0.38 0.37 0.38 0.36
0.15 0.13 0.12 0.11 0.12 0.13 0.14 0.13 0.12 0.12 0.11 0.11 0.13 0.16 0.18 0.19 0.18 0.17 0.20 0.26 0.28 0.25 0.19 0.20 0.19 0.19 0.22 0.25 0.31 0.28 0.29 0.26 0.28 0.32 0.35 0.39 0.39 0.39 0.39 0.37 0.38 0.38 0.37 0.37
0.20 0.19 0.17 0.17 0.17 0.15 0.15 0.15 0.14 0.14 0.14 0.14 0.15 0.16 0.18 0.18 0.17 0.18 0.22 0.28 0.25 0.20 0.20 0.22 0.19 0.19 0.23 0.29 0.35 0.32 0.30 0.27 0.28 0.32 0.33 0.35 0.39 0.44 0.50 0.49 0.46 0.43 0.39 0.37
0.21 0.21 0.19 0.17 0.17 0.17 0.16 0.15 0.15 0.15 0.15 0.16 0.17 0.17 0.19 0.21 0.21 0.20 0.20 0.24 0.24 0.26 0.24 0.22 0.21 0.24 0.28 0.31 0.30 0.32 0.33 0.31 0.30 0.32 0.34 0.35 0.37 0.42 0.49 0.52 0.51 0.47 0.46 0.46
0.20 0.21 0.21 0.20 0.19 0.19 0.17 0.17 0.18 0.18 0.19 0.19 0.21 0.23 0.28 0.32 0.30 0.30 0.29 0.25 0.25 0.27 0.25 0.24 0.28 0.34 0.35 0.29 0.29 0.30 0.33 0.36 0.37 0.39 0.41 0.43 0.43 0.45 0.49 0.51 0.54 0.54 0.52 0.54
0.23 0.21 0.21 0.22 0.21 0.21 0.22 0.23 0.22 0.22 0.24 0.26 0.26 0.29 0.35 0.40 0.39 0.36 0.35 0.35 0.33 0.31 0.27 0.29 0.33 0.36 0.37 0.32 0.34 0.36 0.37 0.41 0.45 0.47 0.48 0.51 0.50 0.52 0.55 0.56 0.57 0.58 0.58 0.59
0.30 0.28 0.28 0.31 0.32 0.31 0.31 0.30 0.28 0.26 0.26 0.29 0.30 0.30 0.33 0.36 0.37 0.39 0.40 0.39 0.38 0.38 0.36 0.40 0.42 0.42 0.38 0.36 0.39 0.41 0.42 0.45 0.51 0.53 0.53 0.54 0.55 0.55 0.57 0.59 0.61 0.61 0.62 0.63
0.28 0.27 0.27 0.30 0.34 0.34 0.33 0.33 0.34 0.34 0.33 0.35 0.35 0.34 0.35 0.35 0.35 0.36 0.39 0.41 0.43 0.46 0.43 0.39 0.38 0.39 0.40 0.43 0.45 0.46 0.47 0.48 0.49 0.48 0.50 0.55 0.58 0.59 0.61 0.64 0.64 0.66 0.68 0.69
0.26 0.24 0.24 0.28 0.32 0.32 0.31 0.34 0.39 0.42 0.43 0.45 0.48 0.47 0.44 0.41 0.41 0.41 0.41 0.42 0.47 0.48 0.47 0.46 0.45 0.44 0.46 0.49 0.50 0.52 0.53 0.53 0.50 0.50 0.52 0.54 0.59 0.64 0.66 0.68 0.70 0.73 0.75 0.76

GEFSNGP_prec_meanprecacc_282.txt.gz
Total_Precipitation_Accumulation
0.33 0.31 0.35 0.42 0.44 0.54 0.69 0.86 1.10 0.99 0.77 0.65 0.63 0.59 0.61 0.67 0.60 0.57 0.56 0.57 0.59 0.57 0.59 0.61 0.65 0.74 0.81 0.92 1.13 1.26 1.36 1.35 1.26 1.20 1.11 1.03 0.94 0.87 0.88 0.79 0.77 0.82 0.97 1.12
0.19 0.20 0.25 0.35 0.47 0.61 0.68 0.75 0.77 0.67 0.64 0.49 0.47 0.42 0.42 0.48 0.49 0.49 0.45 0.40 0.41 0.46 0.48 0.53 0.57 0.64 0.66 0.76 0.94 1.07 1.14 1.18 1.25 1.23 1.06 0.95 0.84 0.77 0.74 0.72 0.71 0.71 0.80 0.95
0.22 0.18 0.29 0.50 0.59 0.66 0.66 0.61 0.53 0.51 0.45 0.33 0.30 0.27 0.27 0.32 0.36 0.42 0.41 0.36 0.34 0.35 0.39 0.47 0.56 0.59 0.64 0.75 0.88 0.93 0.99 1.03 1.08 1.08 0.93 0.86 0.76 0.67 0.66 0.66 0.69 0.67 0.73 0.86
0.32 0.28 0.51 0.70 0.57 0.52 0.58 0.47 0.33 0.31 0.30 0.27 0.22 0.19 0.17 0.17 0.20 0.23 0.26 0.27 0.32 0.30 0.31 0.35 0.43 0.53 0.67 0.72 0.74 0.76 0.83 0.87 0.87 0.87 0.81 0.76 0.65 0.62 0.63 0.67 0.71 0.71 0.75 0.80
0.48 0.46 0.56 0.63 0.43 0.42 0.51 0.49 0.28 0.22 0.21 0.17 0.16 0.15 0.13 0.12 0.13 0.14 0.15 0.18 0.23 0.23 0.23 0.25 0.27 0.31 0.37 0.44 0.49 0.52 0.63 0.71 0.74 0.75 0.73 0.68 0.63 0.70 0.74 0.73 0.72 0.72 0.71 0.71
0.57 0.65 0.72 0.49 0.22 0.22 0.37 0.57 0.26 0.15 0.14 0.12 0.13 0.17 0.15 0.13 0.13 0.12 0.10 0.11 0.14 0.18 0.18 0.17 0.18 0.19 0.24 0.30 0.36 0.40 0.46 0.53 0.60 0.67 0.69 0.73 0.84 0.92 0.93 0.88 0.80 0.72 0.68 0.65
0.61 0.81 0.75 0.44 0.21 0.23 0.44 0.59 0.31 0.15 0.13 0.15 0.16 0.15 0.13 0.14 0.13 0.12 0.10 0.09 0.11 0.13 0.14 0.16 0.17 0.17 0.20 0.25 0.27 0.30 0.30 0.37 0.48 0.64 0.73 0.84 0.99 1.02 0.97 0.91 0.80 0.71 0.66 0.63
0.76 0.98 0.99 0.50 0.29 0.36 0.35 0.25 0.20 0.13 0.12 0.13 0.13 0.13 0.14 0.14 0.12 0.12 0.13 0.11 0.10 0.10 0.11 0.15 0.17 0.16 0.18 0.26 0.28 0.33 0.34 0.36 0.41 0.54 0.69 0.86 1.00 0.99 0.97 0.96 0.88 0.77 0.73 0.69
0.84 0.84 0.65 0.40 0.29 0.23 0.18 0.19 0.13 0.11 0.12 0.13 0.12 0.13 0.12 0.13 0.13 0.12 0.12 0.12 0.12 0.11 0.11 0.12 0.14 0.18 0.19 0.23 0.27 0.29 0.33 0.30 0.31 0.39 0.54 0.72 0.82 0.85 0.87 0.89 0.85 0.80 0.75 0.70
0.44 0.33 0.25 0.22 0.19 0.14 0.11 0.12 0.10 0.08 0.09 0.13 0.17 0.16 0.12 0.12 0.12 0.12 0.12 0.10 0.10 0.12 0.12 0.13 0.15 0.18 0.22 0.26 0.27 0.26 0.28 0.29 0.28 0.29 0.34 0.44 0.53 0.60 0.68 0.72 0.71 0.72 0.72 0.71
0.34 0.20 0.15 0.15 0.15 0.12 0.10 0.10 0.09 0.08 0.08 0.09 0.13 0.14 0.10 0.11 0.09 0.10 0.11 0.11 0.11 0.12 0.15 0.15 0.16 0.17 0.20 0.24 0.27 0.27 0.28 0.30 0.31 0.33 0.36 0.39 0.42 0.46 0.51 0.54 0.64 0.71 0.70 0.73
0.31 0.21 0.16 0.13 0.14 0.14 0.12 0.11 0.10 0.10 0.11 0.12 0.14 0.14 0.13 0.11 0.11 0.10 0.11 0.13 0.15 0.16 0.17 0.17 0.17 0.18 0.18 0.20 0.22 0.24 0.26 0.27 0.27 0.29 0.33 0.34 0.38 0.42 0.46 0.47 0.55 0.58 0.58 0.57
0.15 0.15 0.14 0.13 0.14 0.14 0.12 0.10 0.09 0.09 0.09 0.10 0.12 0.14 0.12 0.10 0.10 0.14 0.18 0.16 0.16 0.17 0.17 0.18 0.18 0.18 0.20 0.20 0.21 0.24 0.25 0.26 0.27 0.26 0.30 0.33 0.35 0.39 0.43 0.42 0.40 0.38 0.42 0.45
0.08 0.12 0.16 0.15 0.13 0.12 0.10 0.09 0.08 0.08 0.07 0.08 0.09 0.13 0.13 0.12 0.13 0.16 0.16 0.18 0.18 0.18 0.18 0.19 0.18 0.16 0.19 0.21 0.25 0.28 0.30 0.33 0.33 0.34 0.35 0.34 0.35 0.39 0.41 0.42 0.38 0.30 0.31 0.35
0.09 0.11 0.13 0.13 0.12 0.10 0.09 0.09 0.09 0.08 0.07 0.10 0.11 0.11 0.14 0.16 0.18 0.19 0.19 0.17 0.15 0.15 0.16 0.18 0.17 0.17 0.19 0.23 0.27 0.28 0.29 0.31 0.34 0.38 0.38 0.38 0.39 0.44 0.43 0.40 0.37 0.32 0.30 0.30
0.11 0.11 0.12 0.13 0.11 0.09 0.09 0.08 0.08 0.09 0.08 0.11 0.13 0.12 0.11 0.14 0.17 0.22 0.24 0.22 0.18 0.15 0.15 0.18 0.19 0.20 0.23 0.27 0.29 0.29 0.30 0.34 0.35 0.36 0.39 0.42 0.40 0.40 0.39 0.39 0.37 0.34 0.32 0.33
0.15 0.14 0.13 0.12 0.09 0.07 0.08 0.09 0.10 0.10 0.10 0.12 0.15 0.14 0.11 0.10 0.12 0.17 0.20 0.22 0.22 0.19 0.17 0.20 0.24 0.27 0.27 0.29 0.32 0.33 0.32 0.33 0.36 0.35 0.33 0.36 0.37 0.36 0.36 0.35 0.33 0.31 0.30 0.33
0.15 0.13 0.10 0.09 0.08 0.08 0.09 0.11 0.12 0.11 0.11 0.13 0.17 0.16 0.14 0.14 0.14 0.16 0.19 0.23 0.22 0.19 0.18 0.20 0.25 0.29 0.30 0.31 0.32 0.34 0.34 0.32 0.29 0.29 0.31 0.32 0.34 0.35 0.37 0.39 0.38 0.35 0.33 0.33
0.13 0.11 0.09 0.09 0.09 0.11 0.13 0.13 0.12 0.12 0.11 0.12 0.15 0.18 0.19 0.19 0.18 0.18 0.19 0.26 0.26 0.23 0.19 0.18 0.23 0.23 0.25 0.28 0.30 0.29 0.31 0.33 0.32 0.31 0.31 0.33 0.36 0.35 0.36 0.37 0.39 0.39 0.39 0.37
0.16 0.14 0.13 0.13 0.14 0.15 0.15 0.14 0.13 0.12 0.12 0.12 0.14 0.17 0.19 0.20 0.19 0.19 0.21 0.27 0.29 0.26 0.20 0.20 0.19 0.19 0.22 0.25 0.31 0.29 0.29 0.27 0.30 0.34 0.36 0.40 0.40 0.40 0.40 0.38 0.40 0.40 0.39 0.39
0.21 0.20 0.19 0.18 0.18 0.16 0.15 0.15 0.15 0.15 0.15 0.15 0.16 0.17 0.18 0.19 0.18 0.19 0.23 0.29 0.26 0.21 0.21 0.24 0.20 0.20 0.23 0.30 0.36 0.33 0.31 0.28 0.29 0.33 0.34 0.36 0.40 0.44 0.51 0.50 0.47 0.44 0.40 0.39
0.22 0.21 0.20 0.18 0.17 0.18 0.17 0.16 0.15 0.16 0.16 0.16 0.17 0.17 0.20 0.22 0.22 0.21 0.21 0.25 0.25 0.27 0.25 0.23 0.21 0.24 0.29 0.32 0.31 0.33 0.34 0.32 0.31 0.34 0.35 0.36 0.38 0.44 0.50 0.54 0.52 0.49 0.47 0.48
0.20 0.21 0.22 0.21 0.21 0.20 0.19 0.19 0.19 0.19 0.20 0.20 0.21 0.23 0.29 0.33 0.31 0.31 0.30 0.26 0.25 0.28 0.26 0.25 0.29 0.35 0.37 0.31 0.30 0.32 0.35 0.37 0.39 0.40 0.43 0.44 0.44 0.47 0.50 0.53 0.56 0.55 0.53 0.55
0.23 0.22 0.22 0.22 0.22 0.21 0.23 0.24 0.23 0.23 0.25 0.27 0.27 0.31 0.37 0.42 0.40 0.38 0.36 0.36 0.34 0.32 0.28 0.30 0.34 0.37 0.38 0.33 0.35 0.37 0.39 0.43 0.47 0.48 0.50 0.53 0.51 0.53 0.56 0.57 0.58 0.59 0.59 0.60
0.31 0.28 0.28 0.31 0.33 0.32 0.32 0.30 0.29 0.26 0.26 0.30 0.31 0.30 0.34 0.38 0.39 0.41 0.41 0.40 0.39 0.39 0.37 0.41 0.43 0.43 0.38 0.37 0.40 0.42 0.44 0.47 0.52 0.55 0.54 0.56 0.56 0.56 0.57 0.60 0.62 0.62 0.63 0.64
0.28 0.27 0.27 0.31 0.34 0.34 0.33 0.33 0.34 0.34 0.33 0.35 0.35 0.34 0.36 0.35 0.35 0.38 0.40 0.43 0.44 0.46 0.44 0.40 0.38 0.40 0.40 0.43 0.45 0.47 0.47 0.48 0.50 0.49 0.51 0.56 0.59 0.60 0.62 0.65 0.65 0.67 0.69 0.69
0.26 0.24 0.24 0.28 0.32 0.32 0.31 0.34 0.39 0.42 0.43 0.45 0.49 0.47 0.44 0.42 0.42 0.42 0.43 0.44 0.48 0.49 0.48 0.47 0.46 0.45 0.46 0.49 0.51 0.52 0.54 0.53 0.50 0.50 0.52 0.55 0.60 0.64 0.67 0.68 0.71 0.73 0.76 0.76